Multibeam Report for HLY1102


Ship Name: Healy
Chief Scientist: Mayer, Larry
University of New Hampshire, Center for Coastal and Ocean Mapping (UNH/CCOM)
Source Organization: University of New Hampshire, Center for Coastal and Ocean Mapping (UNH/CCOM)
Start Date: 2011-08-15
End Date: 2011-09-28


View ISO Metadata

Visit the full NCEI Bathymetry Viewer


Multibeam Bathymetry

Cruise Details

Project: Joint U.S./Canadian Extended Continental Shelf (ECS) Survey
Instrument: Simrad EM122

Data Quality

Number of Files: 1257
Number of Records: 1554620
BATHYMETRY DATA Quantity Percentage
Number of Beams 658640880 100%
Number of Good Beams 566454989 86.0%
Number of Zero Beams 0 0%
Number of Flagged Beams 92185891 14.0%

Navigation Totals

Total Time: 1034.0825 hours
Total Track Length: 11846.286 km
Average Speed: 11.456 km/hr (6.1857 knots)

Cruise Bounds

Northern Extent: 88.45959
Southern Extent: 53.959694
Western Extent: 142.56677
Eastern Extent: -125.891396

Limits

Minimum Sonar Depth 6.2431 Maximum Sonar Depth 10.6798
Minimum Altitude 0 Maximum Altitude 4704.3486
Minimum Depth 21.0331 Maximum Depth 4995.0264

File Information

Full Resolution Bathymetry as collected (raw): 1241

Files File Size Description
0000_20110815_212425_Healy.all.mb58.gz 24.28MB Kongsberg multibeam vendor format
0000_20110817_045837_Healy.all.mb58.gz 9.45MB Kongsberg multibeam vendor format
0001_20110815_213757_Healy.all.mb58.gz 122.0KB Kongsberg multibeam vendor format
0001_20110817_053416_Healy.all.mb58.gz 10.35MB Kongsberg multibeam vendor format
0002_20110815_213759_Healy.all.mb58.gz 31.17MB Kongsberg multibeam vendor format
0002_20110817_061310_Healy.all.mb58.gz 20.78MB Kongsberg multibeam vendor format
0002_20110817_061310_Healy_2.all.mb58.gz 9.99MB Kongsberg multibeam vendor format
0003_20110815_220759_Healy.all.mb58.gz 22.83MB Kongsberg multibeam vendor format
0003_20110817_065444_Healy.all.mb58.gz 21.47MB Kongsberg multibeam vendor format
0004_20110815_223759_Healy.all.mb58.gz 19.83MB Kongsberg multibeam vendor format
0004_20110817_081637_Healy.all.mb58.gz 52.58MB Kongsberg multibeam vendor format
0005_20110815_230759_Healy.all.mb58.gz 11.00MB Kongsberg multibeam vendor format
0005_20110817_113352_Healy.all.mb58.gz 12.77MB Kongsberg multibeam vendor format
0006_20110815_233759_Healy.all.mb58.gz 8.78MB Kongsberg multibeam vendor format
0006_20110817_122047_Healy.all.mb58.gz 12.17MB Kongsberg multibeam vendor format
0007_20110816_000759_Healy.all.mb58.gz 4.96MB Kongsberg multibeam vendor format
0007_20110817_130338_Healy.all.mb58.gz 3.42MB Kongsberg multibeam vendor format
0008_20110816_003759_Healy.all.mb58.gz 6.36MB Kongsberg multibeam vendor format
0008_20110817_131604_Healy.all.mb58.gz 12.00MB Kongsberg multibeam vendor format
0009_20110816_010759_Healy.all.mb58.gz 6.03MB Kongsberg multibeam vendor format
0009_20110817_140113_Healy.all.mb58.gz 37.53MB Kongsberg multibeam vendor format
0010_20110816_013759_Healy.all.mb58.gz 10.86MB Kongsberg multibeam vendor format
0010_20110817_162808_Healy.all.mb58.gz 20.19MB Kongsberg multibeam vendor format
0011_20110816_020759_Healy.all.mb58.gz 10.90MB Kongsberg multibeam vendor format
0011_20110817_175003_Healy.all.mb58.gz 13.16MB Kongsberg multibeam vendor format
0012_20110816_023759_Healy.all.mb58.gz 6.73MB Kongsberg multibeam vendor format
0012_20110817_184144_Healy.all.mb58.gz 16.62MB Kongsberg multibeam vendor format
0013_20110816_025133_Healy.all.mb58.gz 78.60MB Kongsberg multibeam vendor format
0014_20110816_032134_Healy.all.mb58.gz 8.12MB Kongsberg multibeam vendor format
0015_20110816_032512_Healy.all.mb58.gz 64.11MB Kongsberg multibeam vendor format
0016_20110816_035512_Healy.all.mb58.gz 83.85MB Kongsberg multibeam vendor format
0017_20110816_042512_Healy.all.mb58.gz 62.38MB Kongsberg multibeam vendor format
0018_20110816_045511_Healy.all.mb58.gz 63.31MB Kongsberg multibeam vendor format
0019_20110816_052512_Healy.all.mb58.gz 71.73MB Kongsberg multibeam vendor format
0020_20110816_055512_Healy.all.mb58.gz 55.86MB Kongsberg multibeam vendor format
0021_20110816_062512_Healy.all.mb58.gz 50.86MB Kongsberg multibeam vendor format
0022_20110816_065512_Healy.all.mb58.gz 86.82MB Kongsberg multibeam vendor format
0023_20110816_072511_Healy.all.mb58.gz 78.62MB Kongsberg multibeam vendor format
0024_20110816_075511_Healy.all.mb58.gz 82.70MB Kongsberg multibeam vendor format
0025_20110816_082511_Healy.all.mb58.gz 76.31MB Kongsberg multibeam vendor format
0026_20110816_085511_Healy.all.mb58.gz 64.17MB Kongsberg multibeam vendor format
0027_20110816_092512_Healy.all.mb58.gz 55.78MB Kongsberg multibeam vendor format
0028_20110816_095511_Healy.all.mb58.gz 67.52MB Kongsberg multibeam vendor format
0029_20110816_102512_Healy.all.mb58.gz 95.97MB Kongsberg multibeam vendor format
0030_20110816_105512_Healy.all.mb58.gz 89.53MB Kongsberg multibeam vendor format
0031_20110816_112511_Healy.all.mb58.gz 64.23MB Kongsberg multibeam vendor format
0032_20110816_115511_Healy.all.mb58.gz 44.98MB Kongsberg multibeam vendor format
0033_20110816_122512_Healy.all.mb58.gz 24.57MB Kongsberg multibeam vendor format
0034_20110816_125515_Healy.all.mb58.gz 18.44MB Kongsberg multibeam vendor format
0035_20110816_132512_Healy.all.mb58.gz 20.90MB Kongsberg multibeam vendor format
0036_20110816_135517_Healy.all.mb58.gz 16.14MB Kongsberg multibeam vendor format
0037_20110816_142516_Healy.all.mb58.gz 14.44MB Kongsberg multibeam vendor format
0038_20110816_145518_Healy.all.mb58.gz 13.76MB Kongsberg multibeam vendor format
0039_20110816_152518_Healy.all.mb58.gz 12.93MB Kongsberg multibeam vendor format
0040_20110816_155518_Healy.all.mb58.gz 12.02MB Kongsberg multibeam vendor format
0041_20110816_162516_Healy.all.mb58.gz 12.04MB Kongsberg multibeam vendor format
0042_20110816_165518_Healy.all.mb58.gz 11.68MB Kongsberg multibeam vendor format
0043_20110816_172513_Healy.all.mb58.gz 8.14MB Kongsberg multibeam vendor format
0044_20110816_175516_Healy.all.mb58.gz 7.90MB Kongsberg multibeam vendor format
0045_20110816_182514_Healy.all.mb58.gz 7.56MB Kongsberg multibeam vendor format
0046_20110816_185521_Healy.all.mb58.gz 7.25MB Kongsberg multibeam vendor format
0047_20110816_192512_Healy.all.mb58.gz 7.55MB Kongsberg multibeam vendor format
0048_20110816_195520_Healy.all.mb58.gz 7.52MB Kongsberg multibeam vendor format
0049_20110816_202513_Healy.all.mb58.gz 7.65MB Kongsberg multibeam vendor format
0050_20110816_205517_Healy.all.mb58.gz 7.51MB Kongsberg multibeam vendor format
0051_20110816_212518_Healy.all.mb58.gz 7.52MB Kongsberg multibeam vendor format
0052_20110816_215518_Healy.all.mb58.gz 7.57MB Kongsberg multibeam vendor format
0053_20110816_222519_Healy.all.mb58.gz 7.63MB Kongsberg multibeam vendor format
0054_20110816_225512_Healy.all.mb58.gz 7.49MB Kongsberg multibeam vendor format
0055_20110816_232519_Healy.all.mb58.gz 7.63MB Kongsberg multibeam vendor format
0056_20110816_235513_Healy.all.mb58.gz 7.27MB Kongsberg multibeam vendor format
0057_20110817_002512_Healy.all.mb58.gz 7.20MB Kongsberg multibeam vendor format
0058_20110817_005512_Healy.all.mb58.gz 7.07MB Kongsberg multibeam vendor format
0059_20110817_012515_Healy.all.mb58.gz 7.20MB Kongsberg multibeam vendor format
0060_20110817_015513_Healy.all.mb58.gz 7.29MB Kongsberg multibeam vendor format
0061_20110817_022511_Healy.all.mb58.gz 2.34MB Kongsberg multibeam vendor format
0062_20110817_024710_Healy.all.mb58.gz 7.47MB Kongsberg multibeam vendor format
0063_20110817_031707_Healy.all.mb58.gz 7.56MB Kongsberg multibeam vendor format
0064_20110817_034704_Healy.all.mb58.gz 7.81MB Kongsberg multibeam vendor format
0065_20110817_041704_Healy.all.mb58.gz 7.88MB Kongsberg multibeam vendor format
0066_20110817_044707_Healy.all.mb58.gz 2.06MB Kongsberg multibeam vendor format
0066_20110817_195547_Healy.all.mb58.gz 2.09MB Kongsberg multibeam vendor format
0067_20110817_201725_Healy.all.mb58.gz 5.03MB Kongsberg multibeam vendor format
0068_20110817_203740_Healy.all.mb58.gz 14.90MB Kongsberg multibeam vendor format
0069_20110817_213749_Healy.all.mb58.gz 14.94MB Kongsberg multibeam vendor format
0070_20110817_223742_Healy.all.mb58.gz 14.99MB Kongsberg multibeam vendor format
0071_20110817_233741_Healy.all.mb58.gz 14.17MB Kongsberg multibeam vendor format
0072_20110818_003747_Healy.all.mb58.gz 14.40MB Kongsberg multibeam vendor format
0073_20110818_013742_Healy.all.mb58.gz 3.13MB Kongsberg multibeam vendor format
0074_20110818_015042_Healy.all.mb58.gz 7.63MB Kongsberg multibeam vendor format
0075_20110818_022136_Healy.all.mb58.gz 14.52MB Kongsberg multibeam vendor format
0076_20110818_032142_Healy.all.mb58.gz 14.45MB Kongsberg multibeam vendor format
0077_20110818_042136_Healy.all.mb58.gz 14.71MB Kongsberg multibeam vendor format
0078_20110818_052143_Healy.all.mb58.gz 14.65MB Kongsberg multibeam vendor format
0079_20110818_062138_Healy.all.mb58.gz 14.80MB Kongsberg multibeam vendor format
0080_20110818_072138_Healy.all.mb58.gz 14.93MB Kongsberg multibeam vendor format
0081_20110818_082139_Healy.all.mb58.gz 15.14MB Kongsberg multibeam vendor format
0082_20110818_092133_Healy.all.mb58.gz 15.60MB Kongsberg multibeam vendor format
0083_20110818_102137_Healy.all.mb58.gz 15.79MB Kongsberg multibeam vendor format
0084_20110818_112133_Healy.all.mb58.gz 15.99MB Kongsberg multibeam vendor format
0085_20110818_122137_Healy.all.mb58.gz 15.85MB Kongsberg multibeam vendor format
0086_20110818_132141_Healy.all.mb58.gz 17.22MB Kongsberg multibeam vendor format
0087_20110818_142135_Healy.all.mb58.gz 24.74MB Kongsberg multibeam vendor format
0088_20110818_152134_Healy.all.mb58.gz 27.70MB Kongsberg multibeam vendor format
0089_20110818_162140_Healy.all.mb58.gz 11.22MB Kongsberg multibeam vendor format
0090_20110818_164529_Healy.all.mb58.gz 11.97MB Kongsberg multibeam vendor format
0091_20110818_171051_Healy.all.mb58.gz 26.37MB Kongsberg multibeam vendor format
0092_20110818_181049_Healy.all.mb58.gz 24.60MB Kongsberg multibeam vendor format
0093_20110818_191048_Healy.all.mb58.gz 21.08MB Kongsberg multibeam vendor format
0094_20110818_201053_Healy.all.mb58.gz 16.18MB Kongsberg multibeam vendor format
0095_20110818_211059_Healy.all.mb58.gz 14.49MB Kongsberg multibeam vendor format
0096_20110818_221058_Healy.all.mb58.gz 14.50MB Kongsberg multibeam vendor format
0097_20110818_231057_Healy.all.mb58.gz 14.33MB Kongsberg multibeam vendor format
0098_20110819_001055_Healy.all.mb58.gz 14.50MB Kongsberg multibeam vendor format
0099_20110819_011056_Healy.all.mb58.gz 14.40MB Kongsberg multibeam vendor format
0100_20110819_021052_Healy.all.mb58.gz 13.95MB Kongsberg multibeam vendor format
0101_20110819_031059_Healy.all.mb58.gz 13.99MB Kongsberg multibeam vendor format
0102_20110819_041050_Healy.all.mb58.gz 14.31MB Kongsberg multibeam vendor format
0103_20110819_051050_Healy.all.mb58.gz 14.98MB Kongsberg multibeam vendor format
0104_20110819_061054_Healy.all.mb58.gz 7.85MB Kongsberg multibeam vendor format
0105_20110819_064136_Healy.all.mb58.gz 9.09MB Kongsberg multibeam vendor format
0106_20110819_071707_Healy.all.mb58.gz 7.75MB Kongsberg multibeam vendor format
0107_20110819_074914_Healy.all.mb58.gz 14.54MB Kongsberg multibeam vendor format
0108_20110819_084924_Healy.all.mb58.gz 14.46MB Kongsberg multibeam vendor format
0109_20110819_094916_Healy.all.mb58.gz 14.49MB Kongsberg multibeam vendor format
0110_20110819_104920_Healy.all.mb58.gz 14.58MB Kongsberg multibeam vendor format
0111_20110819_114923_Healy.all.mb58.gz 14.81MB Kongsberg multibeam vendor format
0112_20110819_124916_Healy.all.mb58.gz 15.18MB Kongsberg multibeam vendor format
0113_20110819_134922_Healy.all.mb58.gz 15.26MB Kongsberg multibeam vendor format
0114_20110819_144917_Healy.all.mb58.gz 15.57MB Kongsberg multibeam vendor format
0115_20110819_154922_Healy.all.mb58.gz 15.89MB Kongsberg multibeam vendor format
0116_20110819_164921_Healy.all.mb58.gz 3.56MB Kongsberg multibeam vendor format
0117_20110819_170240_Healy.all.mb58.gz 15.33MB Kongsberg multibeam vendor format
0118_20110819_180004_Healy.all.mb58.gz 9.95MB Kongsberg multibeam vendor format
0119_20110819_183656_Healy.all.mb58.gz 12.37MB Kongsberg multibeam vendor format
0120_20110819_192228_Healy.all.mb58.gz 1.24MB Kongsberg multibeam vendor format
0121_20110819_192657_Healy.all.mb58.gz 15.34MB Kongsberg multibeam vendor format
0122_20110819_202654_Healy.all.mb58.gz 15.74MB Kongsberg multibeam vendor format
0123_20110819_212658_Healy.all.mb58.gz 14.31MB Kongsberg multibeam vendor format
0124_20110819_222700_Healy.all.mb58.gz 1.81MB Kongsberg multibeam vendor format
0125_20110819_223413_Healy.all.mb58.gz 14.19MB Kongsberg multibeam vendor format
0126_20110819_233418_Healy.all.mb58.gz 8.75MB Kongsberg multibeam vendor format
0127_20110820_001159_Healy.all.mb58.gz 14.77MB Kongsberg multibeam vendor format
0128_20110820_011150_Healy.all.mb58.gz 15.00MB Kongsberg multibeam vendor format
0129_20110820_021152_Healy.all.mb58.gz 15.04MB Kongsberg multibeam vendor format
0130_20110820_031149_Healy.all.mb58.gz 15.22MB Kongsberg multibeam vendor format
0131_20110820_041156_Healy.all.mb58.gz 15.10MB Kongsberg multibeam vendor format
0132_20110820_051148_Healy.all.mb58.gz 15.21MB Kongsberg multibeam vendor format
0133_20110820_061152_Healy.all.mb58.gz 15.24MB Kongsberg multibeam vendor format
0134_20110820_071157_Healy.all.mb58.gz 14.35MB Kongsberg multibeam vendor format
0135_20110820_081156_Healy.all.mb58.gz 14.97MB Kongsberg multibeam vendor format
0136_20110820_091158_Healy.all.mb58.gz 15.41MB Kongsberg multibeam vendor format
0137_20110820_101154_Healy.all.mb58.gz 15.69MB Kongsberg multibeam vendor format
0138_20110820_111157_Healy.all.mb58.gz 15.78MB Kongsberg multibeam vendor format
0139_20110820_121153_Healy.all.mb58.gz 15.56MB Kongsberg multibeam vendor format
0140_20110820_131151_Healy.all.mb58.gz 15.56MB Kongsberg multibeam vendor format
0141_20110820_141154_Healy.all.mb58.gz 15.30MB Kongsberg multibeam vendor format
0142_20110820_151157_Healy.all.mb58.gz 15.59MB Kongsberg multibeam vendor format
0143_20110820_161154_Healy.all.mb58.gz 15.64MB Kongsberg multibeam vendor format
0144_20110820_171152_Healy.all.mb58.gz 15.82MB Kongsberg multibeam vendor format
0145_20110820_181148_Healy.all.mb58.gz 15.98MB Kongsberg multibeam vendor format
0146_20110820_191148_Healy.all.mb58.gz 16.01MB Kongsberg multibeam vendor format
0147_20110820_201150_Healy.all.mb58.gz 16.07MB Kongsberg multibeam vendor format
0148_20110820_211150_Healy.all.mb58.gz 15.67MB Kongsberg multibeam vendor format
0149_20110820_221149_Healy.all.mb58.gz 15.53MB Kongsberg multibeam vendor format
0150_20110820_231155_Healy.all.mb58.gz 15.59MB Kongsberg multibeam vendor format
0151_20110821_001150_Healy.all.mb58.gz 16.15MB Kongsberg multibeam vendor format
0152_20110821_011150_Healy.all.mb58.gz 16.66MB Kongsberg multibeam vendor format
0153_20110821_021157_Healy.all.mb58.gz 9.28MB Kongsberg multibeam vendor format
0154_20110821_024439_Healy.all.mb58.gz 3.44MB Kongsberg multibeam vendor format
0155_20110821_025637_Healy.all.mb58.gz 17.64MB Kongsberg multibeam vendor format
0156_20110821_035644_Healy.all.mb58.gz 16.21MB Kongsberg multibeam vendor format
0157_20110821_045638_Healy.all.mb58.gz 15.80MB Kongsberg multibeam vendor format
0158_20110821_055643_Healy.all.mb58.gz 15.40MB Kongsberg multibeam vendor format
0159_20110821_065644_Healy.all.mb58.gz 9.41MB Kongsberg multibeam vendor format
0160_20110821_073336_Healy.all.mb58.gz 16.46MB Kongsberg multibeam vendor format
0161_20110821_083331_Healy.all.mb58.gz 16.39MB Kongsberg multibeam vendor format
0162_20110821_093334_Healy.all.mb58.gz 16.43MB Kongsberg multibeam vendor format
0163_20110821_103333_Healy.all.mb58.gz 16.49MB Kongsberg multibeam vendor format
0164_20110821_113335_Healy.all.mb58.gz 15.63MB Kongsberg multibeam vendor format
0165_20110821_123332_Healy.all.mb58.gz 15.40MB Kongsberg multibeam vendor format
0166_20110821_133335_Healy.all.mb58.gz 5.48MB Kongsberg multibeam vendor format
0167_20110821_135522_Healy.all.mb58.gz 16.06MB Kongsberg multibeam vendor format
0168_20110821_145520_Healy.all.mb58.gz 9.15MB Kongsberg multibeam vendor format
0169_20110821_153004_Healy.all.mb58.gz 7.27MB Kongsberg multibeam vendor format
0170_20110821_155505_Healy.all.mb58.gz 15.36MB Kongsberg multibeam vendor format
0171_20110821_165458_Healy.all.mb58.gz 15.68MB Kongsberg multibeam vendor format
0172_20110821_175459_Healy.all.mb58.gz 15.31MB Kongsberg multibeam vendor format
0173_20110821_185501_Healy.all.mb58.gz 15.15MB Kongsberg multibeam vendor format
0174_20110821_195502_Healy.all.mb58.gz 15.31MB Kongsberg multibeam vendor format
0175_20110821_205500_Healy.all.mb58.gz 15.14MB Kongsberg multibeam vendor format
0176_20110821_215458_Healy.all.mb58.gz 4.57MB Kongsberg multibeam vendor format
0177_20110821_221337_Healy.all.mb58.gz 14.81MB Kongsberg multibeam vendor format
0178_20110821_231336_Healy.all.mb58.gz 14.98MB Kongsberg multibeam vendor format
0179_20110822_001329_Healy.all.mb58.gz 15.03MB Kongsberg multibeam vendor format
0180_20110822_011329_Healy.all.mb58.gz 15.05MB Kongsberg multibeam vendor format
0181_20110822_021339_Healy.all.mb58.gz 15.02MB Kongsberg multibeam vendor format
0182_20110822_031328_Healy.all.mb58.gz 14.39MB Kongsberg multibeam vendor format
0183_20110822_041329_Healy.all.mb58.gz 14.50MB Kongsberg multibeam vendor format
0184_20110822_051336_Healy.all.mb58.gz 14.31MB Kongsberg multibeam vendor format
0185_20110822_061328_Healy.all.mb58.gz 9.24MB Kongsberg multibeam vendor format
0186_20110822_071333_Healy.all.mb58.gz 9.02MB Kongsberg multibeam vendor format
0187_20110822_081338_Healy.all.mb58.gz 9.11MB Kongsberg multibeam vendor format
0188_20110822_091336_Healy.all.mb58.gz 8.97MB Kongsberg multibeam vendor format
0189_20110822_101328_Healy.all.mb58.gz 8.64MB Kongsberg multibeam vendor format
0190_20110822_111328_Healy.all.mb58.gz 8.68MB Kongsberg multibeam vendor format
0191_20110822_121334_Healy.all.mb58.gz 8.24MB Kongsberg multibeam vendor format
0192_20110822_131331_Healy.all.mb58.gz 9.31MB Kongsberg multibeam vendor format
0193_20110822_141329_Healy.all.mb58.gz 8.15MB Kongsberg multibeam vendor format
0194_20110822_151336_Healy.all.mb58.gz 8.30MB Kongsberg multibeam vendor format
0195_20110822_161334_Healy.all.mb58.gz 8.47MB Kongsberg multibeam vendor format
0196_20110822_171327_Healy.all.mb58.gz 8.75MB Kongsberg multibeam vendor format
0197_20110822_181331_Healy.all.mb58.gz 8.75MB Kongsberg multibeam vendor format
0198_20110822_191335_Healy.all.mb58.gz 14.31MB Kongsberg multibeam vendor format
0199_20110822_201327_Healy.all.mb58.gz 32.34MB Kongsberg multibeam vendor format
0200_20110822_211329_Healy.all.mb58.gz 31.92MB Kongsberg multibeam vendor format
0201_20110822_221329_Healy.all.mb58.gz 33.37MB Kongsberg multibeam vendor format
0202_20110822_231328_Healy.all.mb58.gz 46.05MB Kongsberg multibeam vendor format
0203_20110823_001329_Healy.all.mb58.gz 51.76MB Kongsberg multibeam vendor format
0204_20110823_011330_Healy.all.mb58.gz 54.05MB Kongsberg multibeam vendor format
0205_20110823_021328_Healy.all.mb58.gz 48.48MB Kongsberg multibeam vendor format
0206_20110823_031328_Healy.all.mb58.gz 31.56MB Kongsberg multibeam vendor format
0207_20110823_041331_Healy.all.mb58.gz 27.40MB Kongsberg multibeam vendor format
0208_20110823_051332_Healy.all.mb58.gz 27.60MB Kongsberg multibeam vendor format
0209_20110823_061329_Healy.all.mb58.gz 28.44MB Kongsberg multibeam vendor format
0210_20110823_071330_Healy.all.mb58.gz 30.91MB Kongsberg multibeam vendor format
0211_20110823_081328_Healy.all.mb58.gz 41.87MB Kongsberg multibeam vendor format
0212_20110823_091332_Healy.all.mb58.gz 17.42MB Kongsberg multibeam vendor format
0213_20110823_101331_Healy.all.mb58.gz 17.23MB Kongsberg multibeam vendor format
0214_20110823_111329_Healy.all.mb58.gz 54.68MB Kongsberg multibeam vendor format
0215_20110823_121328_Healy.all.mb58.gz 53.94MB Kongsberg multibeam vendor format
0216_20110823_131326_Healy.all.mb58.gz 51.99MB Kongsberg multibeam vendor format
0217_20110823_141327_Healy.all.mb58.gz 46.41MB Kongsberg multibeam vendor format
0218_20110823_151328_Healy.all.mb58.gz 48.98MB Kongsberg multibeam vendor format
0219_20110823_161329_Healy.all.mb58.gz 49.79MB Kongsberg multibeam vendor format
0220_20110823_171329_Healy.all.mb58.gz 49.78MB Kongsberg multibeam vendor format
0221_20110823_181327_Healy.all.mb58.gz 50.01MB Kongsberg multibeam vendor format
0222_20110823_191328_Healy.all.mb58.gz 50.05MB Kongsberg multibeam vendor format
0223_20110823_201329_Healy.all.mb58.gz 50.40MB Kongsberg multibeam vendor format
0224_20110823_211329_Healy.all.mb58.gz 50.18MB Kongsberg multibeam vendor format
0225_20110823_221328_Healy.all.mb58.gz 50.10MB Kongsberg multibeam vendor format
0226_20110823_231329_Healy.all.mb58.gz 49.81MB Kongsberg multibeam vendor format
0227_20110824_001327_Healy.all.mb58.gz 49.93MB Kongsberg multibeam vendor format
0228_20110824_011329_Healy.all.mb58.gz 49.57MB Kongsberg multibeam vendor format
0229_20110824_021328_Healy.all.mb58.gz 49.59MB Kongsberg multibeam vendor format
0230_20110824_031329_Healy.all.mb58.gz 31.12MB Kongsberg multibeam vendor format
0231_20110824_035151_Healy.all.mb58.gz 50.63MB Kongsberg multibeam vendor format
0232_20110824_045153_Healy.all.mb58.gz 53.74MB Kongsberg multibeam vendor format
0233_20110824_055153_Healy.all.mb58.gz 43.09MB Kongsberg multibeam vendor format
0234_20110824_063722_Healy.all.mb58.gz 58.67MB Kongsberg multibeam vendor format
0235_20110824_073721_Healy.all.mb58.gz 58.35MB Kongsberg multibeam vendor format
0236_20110824_083723_Healy.all.mb58.gz 57.21MB Kongsberg multibeam vendor format
0237_20110824_093723_Healy.all.mb58.gz 54.03MB Kongsberg multibeam vendor format
0238_20110824_103723_Healy.all.mb58.gz 54.82MB Kongsberg multibeam vendor format
0239_20110824_113723_Healy.all.mb58.gz 52.69MB Kongsberg multibeam vendor format
0240_20110824_123723_Healy.all.mb58.gz 51.49MB Kongsberg multibeam vendor format
0241_20110824_133722_Healy.all.mb58.gz 44.02MB Kongsberg multibeam vendor format
0242_20110824_143722_Healy.all.mb58.gz 49.76MB Kongsberg multibeam vendor format
0243_20110824_153721_Healy.all.mb58.gz 49.31MB Kongsberg multibeam vendor format
0244_20110824_163720_Healy.all.mb58.gz 47.34MB Kongsberg multibeam vendor format
0245_20110824_173722_Healy.all.mb58.gz 46.47MB Kongsberg multibeam vendor format
0246_20110824_183720_Healy.all.mb58.gz 36.45MB Kongsberg multibeam vendor format
0247_20110824_193722_Healy.all.mb58.gz 31.53MB Kongsberg multibeam vendor format
0248_20110824_203721_Healy.all.mb58.gz 28.99MB Kongsberg multibeam vendor format
0249_20110824_213722_Healy.all.mb58.gz 27.34MB Kongsberg multibeam vendor format
0250_20110824_223724_Healy.all.mb58.gz 26.08MB Kongsberg multibeam vendor format
0251_20110824_233726_Healy.all.mb58.gz 25.72MB Kongsberg multibeam vendor format
0252_20110825_003722_Healy.all.mb58.gz 25.44MB Kongsberg multibeam vendor format
0253_20110825_013721_Healy.all.mb58.gz 25.86MB Kongsberg multibeam vendor format
0254_20110825_023725_Healy.all.mb58.gz 22.89MB Kongsberg multibeam vendor format
0255_20110825_033727_Healy.all.mb58.gz 23.31MB Kongsberg multibeam vendor format
0256_20110825_043726_Healy.all.mb58.gz 16.91MB Kongsberg multibeam vendor format
0257_20110825_053721_Healy.all.mb58.gz 16.33MB Kongsberg multibeam vendor format
0258_20110825_063721_Healy.all.mb58.gz 16.60MB Kongsberg multibeam vendor format
0259_20110825_073724_Healy.all.mb58.gz 16.72MB Kongsberg multibeam vendor format
0260_20110825_083726_Healy.all.mb58.gz 16.67MB Kongsberg multibeam vendor format
0261_20110825_093720_Healy.all.mb58.gz 17.11MB Kongsberg multibeam vendor format
0262_20110825_103723_Healy.all.mb58.gz 15.94MB Kongsberg multibeam vendor format
0263_20110825_113721_Healy.all.mb58.gz 15.91MB Kongsberg multibeam vendor format
0264_20110825_123726_Healy.all.mb58.gz 15.90MB Kongsberg multibeam vendor format
0265_20110825_133727_Healy.all.mb58.gz 15.66MB Kongsberg multibeam vendor format
0266_20110825_143728_Healy.all.mb58.gz 16.07MB Kongsberg multibeam vendor format
0267_20110825_153728_Healy.all.mb58.gz 15.16MB Kongsberg multibeam vendor format
0268_20110825_163720_Healy.all.mb58.gz 15.94MB Kongsberg multibeam vendor format
0269_20110825_173722_Healy.all.mb58.gz 15.87MB Kongsberg multibeam vendor format
0270_20110825_183726_Healy.all.mb58.gz 16.15MB Kongsberg multibeam vendor format
0271_20110825_193729_Healy.all.mb58.gz 16.12MB Kongsberg multibeam vendor format
0272_20110825_203722_Healy.all.mb58.gz 15.90MB Kongsberg multibeam vendor format
0273_20110825_213727_Healy.all.mb58.gz 15.73MB Kongsberg multibeam vendor format
0274_20110825_223722_Healy.all.mb58.gz 15.12MB Kongsberg multibeam vendor format
0275_20110825_233723_Healy.all.mb58.gz 15.95MB Kongsberg multibeam vendor format
0276_20110826_003724_Healy.all.mb58.gz 15.67MB Kongsberg multibeam vendor format
0277_20110826_013724_Healy.all.mb58.gz 16.02MB Kongsberg multibeam vendor format
0278_20110826_023722_Healy.all.mb58.gz 15.93MB Kongsberg multibeam vendor format
0279_20110826_033727_Healy.all.mb58.gz 15.67MB Kongsberg multibeam vendor format
0280_20110826_043723_Healy.all.mb58.gz 15.65MB Kongsberg multibeam vendor format
0281_20110826_053726_Healy.all.mb58.gz 15.62MB Kongsberg multibeam vendor format
0282_20110826_063720_Healy.all.mb58.gz 14.87MB Kongsberg multibeam vendor format
0283_20110826_073729_Healy.all.mb58.gz 15.94MB Kongsberg multibeam vendor format
0284_20110826_083720_Healy.all.mb58.gz 15.20MB Kongsberg multibeam vendor format
0285_20110826_093728_Healy.all.mb58.gz 12.61MB Kongsberg multibeam vendor format
0286_20110826_103726_Healy.all.mb58.gz 9.59MB Kongsberg multibeam vendor format
0287_20110826_113721_Healy.all.mb58.gz 9.65MB Kongsberg multibeam vendor format
0288_20110826_123725_Healy.all.mb58.gz 9.49MB Kongsberg multibeam vendor format
0289_20110826_133725_Healy.all.mb58.gz 9.52MB Kongsberg multibeam vendor format
0290_20110826_143720_Healy.all.mb58.gz 9.18MB Kongsberg multibeam vendor format
0291_20110826_153721_Healy.all.mb58.gz 9.15MB Kongsberg multibeam vendor format
0292_20110826_163726_Healy.all.mb58.gz 9.14MB Kongsberg multibeam vendor format
0293_20110826_173724_Healy.all.mb58.gz 9.96MB Kongsberg multibeam vendor format
0294_20110826_183726_Healy.all.mb58.gz 8.71MB Kongsberg multibeam vendor format
0295_20110826_193722_Healy.all.mb58.gz 9.38MB Kongsberg multibeam vendor format
0296_20110826_203719_Healy.all.mb58.gz 9.15MB Kongsberg multibeam vendor format
0297_20110826_213723_Healy.all.mb58.gz 8.97MB Kongsberg multibeam vendor format
0298_20110826_223727_Healy.all.mb58.gz 8.60MB Kongsberg multibeam vendor format
0299_20110826_233720_Healy.all.mb58.gz 8.38MB Kongsberg multibeam vendor format
0300_20110827_003729_Healy.all.mb58.gz 8.67MB Kongsberg multibeam vendor format
0301_20110827_013725_Healy.all.mb58.gz 8.52MB Kongsberg multibeam vendor format
0302_20110827_023721_Healy.all.mb58.gz 8.78MB Kongsberg multibeam vendor format
0303_20110827_033722_Healy.all.mb58.gz 8.73MB Kongsberg multibeam vendor format
0304_20110827_043727_Healy.all.mb58.gz 7.87MB Kongsberg multibeam vendor format
0305_20110827_053723_Healy.all.mb58.gz 7.82MB Kongsberg multibeam vendor format
0306_20110827_063729_Healy.all.mb58.gz 9.01MB Kongsberg multibeam vendor format
0307_20110827_073720_Healy.all.mb58.gz 8.79MB Kongsberg multibeam vendor format
0308_20110827_083722_Healy.all.mb58.gz 7.79MB Kongsberg multibeam vendor format
0309_20110827_093720_Healy.all.mb58.gz 8.82MB Kongsberg multibeam vendor format
0310_20110827_103724_Healy.all.mb58.gz 3.66MB Kongsberg multibeam vendor format
0311_20110827_112841_Healy.all.mb58.gz 8.89MB Kongsberg multibeam vendor format
0312_20110827_122845_Healy.all.mb58.gz 8.44MB Kongsberg multibeam vendor format
0313_20110827_132842_Healy.all.mb58.gz 8.16MB Kongsberg multibeam vendor format
0314_20110827_142839_Healy.all.mb58.gz 8.70MB Kongsberg multibeam vendor format
0315_20110827_152841_Healy.all.mb58.gz 8.47MB Kongsberg multibeam vendor format
0316_20110827_162845_Healy.all.mb58.gz 8.41MB Kongsberg multibeam vendor format
0317_20110827_172843_Healy.all.mb58.gz 8.40MB Kongsberg multibeam vendor format
0318_20110827_182842_Healy.all.mb58.gz 7.13MB Kongsberg multibeam vendor format
0319_20110827_192839_Healy.all.mb58.gz 8.57MB Kongsberg multibeam vendor format
0320_20110827_202842_Healy.all.mb58.gz 8.52MB Kongsberg multibeam vendor format
0321_20110827_212845_Healy.all.mb58.gz 8.47MB Kongsberg multibeam vendor format
0322_20110827_222848_Healy.all.mb58.gz 8.07MB Kongsberg multibeam vendor format
0323_20110827_232842_Healy.all.mb58.gz 7.40MB Kongsberg multibeam vendor format
0324_20110828_002842_Healy.all.mb58.gz 8.47MB Kongsberg multibeam vendor format
0325_20110828_012841_Healy.all.mb58.gz 8.77MB Kongsberg multibeam vendor format
0326_20110828_022845_Healy.all.mb58.gz 8.98MB Kongsberg multibeam vendor format
0327_20110828_032845_Healy.all.mb58.gz 8.49MB Kongsberg multibeam vendor format
0328_20110828_042845_Healy.all.mb58.gz 8.40MB Kongsberg multibeam vendor format
0329_20110828_052842_Healy.all.mb58.gz 9.13MB Kongsberg multibeam vendor format
0330_20110828_062845_Healy.all.mb58.gz 8.74MB Kongsberg multibeam vendor format
0331_20110828_072838_Healy.all.mb58.gz 8.71MB Kongsberg multibeam vendor format
0332_20110828_082846_Healy.all.mb58.gz 9.28MB Kongsberg multibeam vendor format
0333_20110828_092838_Healy.all.mb58.gz 9.74MB Kongsberg multibeam vendor format
0334_20110828_102839_Healy.all.mb58.gz 10.87MB Kongsberg multibeam vendor format
0335_20110828_112842_Healy.all.mb58.gz 11.81MB Kongsberg multibeam vendor format
0336_20110828_122840_Healy.all.mb58.gz 9.92MB Kongsberg multibeam vendor format
0337_20110828_132841_Healy.all.mb58.gz 9.64MB Kongsberg multibeam vendor format
0338_20110828_142844_Healy.all.mb58.gz 9.95MB Kongsberg multibeam vendor format
0339_20110828_152844_Healy.all.mb58.gz 9.70MB Kongsberg multibeam vendor format
0340_20110828_162845_Healy.all.mb58.gz 8.86MB Kongsberg multibeam vendor format
0341_20110828_172839_Healy.all.mb58.gz 10.14MB Kongsberg multibeam vendor format
0342_20110828_182845_Healy.all.mb58.gz 9.45MB Kongsberg multibeam vendor format
0343_20110828_192844_Healy.all.mb58.gz 10.75MB Kongsberg multibeam vendor format
0344_20110828_202838_Healy.all.mb58.gz 9.46MB Kongsberg multibeam vendor format
0345_20110828_212844_Healy.all.mb58.gz 10.56MB Kongsberg multibeam vendor format
0346_20110828_222838_Healy.all.mb58.gz 11.11MB Kongsberg multibeam vendor format
0347_20110828_232841_Healy.all.mb58.gz 10.89MB Kongsberg multibeam vendor format
0348_20110829_002839_Healy.all.mb58.gz 11.87MB Kongsberg multibeam vendor format
0349_20110829_012841_Healy.all.mb58.gz 10.47MB Kongsberg multibeam vendor format
0350_20110829_022841_Healy.all.mb58.gz 10.78MB Kongsberg multibeam vendor format
0351_20110829_032843_Healy.all.mb58.gz 9.41MB Kongsberg multibeam vendor format
0352_20110829_042839_Healy.all.mb58.gz 9.33MB Kongsberg multibeam vendor format
0353_20110829_052840_Healy.all.mb58.gz 9.77MB Kongsberg multibeam vendor format
0354_20110829_062840_Healy.all.mb58.gz 11.51MB Kongsberg multibeam vendor format
0355_20110829_072842_Healy.all.mb58.gz 10.59MB Kongsberg multibeam vendor format
0356_20110829_082843_Healy.all.mb58.gz 9.58MB Kongsberg multibeam vendor format
0357_20110829_092840_Healy.all.mb58.gz 7.37MB Kongsberg multibeam vendor format
0358_20110829_102839_Healy.all.mb58.gz 6.76MB Kongsberg multibeam vendor format
0359_20110829_112839_Healy.all.mb58.gz 7.87MB Kongsberg multibeam vendor format
0360_20110829_122841_Healy.all.mb58.gz 8.99MB Kongsberg multibeam vendor format
0361_20110829_132837_Healy.all.mb58.gz 9.55MB Kongsberg multibeam vendor format
0362_20110829_142840_Healy.all.mb58.gz 8.87MB Kongsberg multibeam vendor format
0363_20110829_152841_Healy.all.mb58.gz 8.63MB Kongsberg multibeam vendor format
0364_20110829_162840_Healy.all.mb58.gz 8.04MB Kongsberg multibeam vendor format
0365_20110829_172841_Healy.all.mb58.gz 7.66MB Kongsberg multibeam vendor format
0366_20110829_182840_Healy.all.mb58.gz 5.01MB Kongsberg multibeam vendor format
0367_20110829_192840_Healy.all.mb58.gz 4.93MB Kongsberg multibeam vendor format
0368_20110829_202840_Healy.all.mb58.gz 6.59MB Kongsberg multibeam vendor format
0369_20110829_212842_Healy.all.mb58.gz 6.50MB Kongsberg multibeam vendor format
0370_20110829_222838_Healy.all.mb58.gz 5.46MB Kongsberg multibeam vendor format
0371_20110829_232913_Healy.all.mb58.gz 11.39MB Kongsberg multibeam vendor format
0372_20110830_002840_Healy.all.mb58.gz 7.80MB Kongsberg multibeam vendor format
0373_20110830_012842_Healy.all.mb58.gz 15.52MB Kongsberg multibeam vendor format
0374_20110830_022838_Healy.all.mb58.gz 11.59MB Kongsberg multibeam vendor format
0375_20110830_031329_Healy.all.mb58.gz 0.82MB Kongsberg multibeam vendor format
0376_20110830_031641_Healy.all.mb58.gz 15.28MB Kongsberg multibeam vendor format
0377_20110830_041638_Healy.all.mb58.gz 15.17MB Kongsberg multibeam vendor format
0378_20110830_051637_Healy.all.mb58.gz 9.28MB Kongsberg multibeam vendor format
0379_20110830_055249_Healy.all.mb58.gz 2.14MB Kongsberg multibeam vendor format
0380_20110830_060940_Healy.all.mb58.gz 0.63MB Kongsberg multibeam vendor format
0381_20110830_061535_Healy.all.mb58.gz 0.96MB Kongsberg multibeam vendor format
0382_20110830_062250_Healy.all.mb58.gz 3.04MB Kongsberg multibeam vendor format
0383_20110830_064454_Healy.all.mb58.gz 396.6KB Kongsberg multibeam vendor format
0384_20110830_064815_Healy.all.mb58.gz 6.64MB Kongsberg multibeam vendor format
0385_20110830_074245_Healy.all.mb58.gz 3.68MB Kongsberg multibeam vendor format
0386_20110830_081319_Healy.all.mb58.gz 5.61MB Kongsberg multibeam vendor format
0387_20110830_085349_Healy.all.mb58.gz 0.87MB Kongsberg multibeam vendor format
0388_20110830_090059_Healy.all.mb58.gz 406.6KB Kongsberg multibeam vendor format
0389_20110830_090539_Healy.all.mb58.gz 6.93MB Kongsberg multibeam vendor format
0390_20110830_095659_Healy.all.mb58.gz 6.55MB Kongsberg multibeam vendor format
0391_20110830_104004_Healy.all.mb58.gz 6.47MB Kongsberg multibeam vendor format
0392_20110830_112252_Healy.all.mb58.gz 7.54MB Kongsberg multibeam vendor format
0393_20110830_122256_Healy.all.mb58.gz 164.1KB Kongsberg multibeam vendor format
0394_20110830_122414_Healy.all.mb58.gz 3.99MB Kongsberg multibeam vendor format
0395_20110830_125557_Healy.all.mb58.gz 0.57MB Kongsberg multibeam vendor format
0396_20110830_130147_Healy.all.mb58.gz 5.36MB Kongsberg multibeam vendor format
0397_20110830_140144_Healy.all.mb58.gz 2.79MB Kongsberg multibeam vendor format
0398_20110830_142640_Healy.all.mb58.gz 231.7KB Kongsberg multibeam vendor format
0399_20110830_142815_Healy.all.mb58.gz 0.85MB Kongsberg multibeam vendor format
0400_20110830_143452_Healy.all.mb58.gz 2.99MB Kongsberg multibeam vendor format
0401_20110830_151832_Healy.all.mb58.gz 42.3KB Kongsberg multibeam vendor format
0402_20110830_151918_Healy.all.mb58.gz 5.77MB Kongsberg multibeam vendor format
0403_20110830_161920_Healy.all.mb58.gz 2.64MB Kongsberg multibeam vendor format
0404_20110830_164130_Healy.all.mb58.gz 252.8KB Kongsberg multibeam vendor format
0405_20110830_164408_Healy.all.mb58.gz 5.89MB Kongsberg multibeam vendor format
0406_20110830_174414_Healy.all.mb58.gz 6.56MB Kongsberg multibeam vendor format
0407_20110830_184407_Healy.all.mb58.gz 6.51MB Kongsberg multibeam vendor format
0408_20110830_194411_Healy.all.mb58.gz 5.07MB Kongsberg multibeam vendor format
0409_20110830_204333_Healy.all.mb58.gz 468.1KB Kongsberg multibeam vendor format
0410_20110830_204953_Healy.all.mb58.gz 1.78MB Kongsberg multibeam vendor format
0411_20110830_211036_Healy.all.mb58.gz 6.59MB Kongsberg multibeam vendor format
0412_20110830_221033_Healy.all.mb58.gz 6.61MB Kongsberg multibeam vendor format
0413_20110830_231031_Healy.all.mb58.gz 7.84MB Kongsberg multibeam vendor format
0414_20110831_000318_Healy.all.mb58.gz 5.98MB Kongsberg multibeam vendor format
0415_20110831_003242_Healy.all.mb58.gz 2.17MB Kongsberg multibeam vendor format
0416_20110831_005011_Healy.all.mb58.gz 3.86MB Kongsberg multibeam vendor format
0417_20110831_011640_Healy.all.mb58.gz 106.7KB Kongsberg multibeam vendor format
0418_20110831_011719_Healy.all.mb58.gz 0.86MB Kongsberg multibeam vendor format
0419_20110831_012306_Healy.all.mb58.gz 0.97MB Kongsberg multibeam vendor format
0420_20110831_012939_Healy.all.mb58.gz 4.69MB Kongsberg multibeam vendor format
0421_20110831_020206_Healy.all.mb58.gz 7.11MB Kongsberg multibeam vendor format
0422_20110831_025032_Healy.all.mb58.gz 1.88MB Kongsberg multibeam vendor format
0423_20110831_030321_Healy.all.mb58.gz 389.3KB Kongsberg multibeam vendor format
0424_20110831_030616_Healy.all.mb58.gz 1.46MB Kongsberg multibeam vendor format
0425_20110831_031559_Healy.all.mb58.gz 0.64MB Kongsberg multibeam vendor format
0426_20110831_032114_Healy.all.mb58.gz 470.8KB Kongsberg multibeam vendor format
0427_20110831_032456_Healy.all.mb58.gz 1.50MB Kongsberg multibeam vendor format
0428_20110831_033438_Healy.all.mb58.gz 0.63MB Kongsberg multibeam vendor format
0429_20110831_033835_Healy.all.mb58.gz 281.8KB Kongsberg multibeam vendor format
0430_20110831_034007_Healy.all.mb58.gz 262.8KB Kongsberg multibeam vendor format
0431_20110831_034237_Healy.all.mb58.gz 288.9KB Kongsberg multibeam vendor format
0432_20110831_034438_Healy.all.mb58.gz 2.03MB Kongsberg multibeam vendor format
0433_20110831_035843_Healy.all.mb58.gz 6.26MB Kongsberg multibeam vendor format
0434_20110831_043806_Healy.all.mb58.gz 3.01MB Kongsberg multibeam vendor format
0435_20110831_050119_Healy.all.mb58.gz 310.6KB Kongsberg multibeam vendor format
0436_20110831_050412_Healy.all.mb58.gz 2.00MB Kongsberg multibeam vendor format
0437_20110831_051806_Healy.all.mb58.gz 8.62MB Kongsberg multibeam vendor format
0438_20110831_061807_Healy.all.mb58.gz 9.11MB Kongsberg multibeam vendor format
0439_20110831_071810_Healy.all.mb58.gz 8.63MB Kongsberg multibeam vendor format
0440_20110831_081811_Healy.all.mb58.gz 7.58MB Kongsberg multibeam vendor format
0441_20110831_091807_Healy.all.mb58.gz 7.62MB Kongsberg multibeam vendor format
0442_20110831_101809_Healy.all.mb58.gz 6.53MB Kongsberg multibeam vendor format
0443_20110831_110610_Healy.all.mb58.gz 7.61MB Kongsberg multibeam vendor format
0444_20110831_120614_Healy.all.mb58.gz 6.81MB Kongsberg multibeam vendor format
0445_20110831_130614_Healy.all.mb58.gz 6.79MB Kongsberg multibeam vendor format
0446_20110831_140618_Healy.all.mb58.gz 6.57MB Kongsberg multibeam vendor format
0447_20110831_150608_Healy.all.mb58.gz 5.63MB Kongsberg multibeam vendor format
0448_20110831_160612_Healy.all.mb58.gz 6.09MB Kongsberg multibeam vendor format
0449_20110831_170615_Healy.all.mb58.gz 6.83MB Kongsberg multibeam vendor format
0450_20110831_180614_Healy.all.mb58.gz 5.91MB Kongsberg multibeam vendor format
0451_20110831_190610_Healy.all.mb58.gz 6.79MB Kongsberg multibeam vendor format
0452_20110831_200607_Healy.all.mb58.gz 6.73MB Kongsberg multibeam vendor format
0453_20110831_210612_Healy.all.mb58.gz 6.87MB Kongsberg multibeam vendor format
0454_20110831_220615_Healy.all.mb58.gz 7.16MB Kongsberg multibeam vendor format
0455_20110831_230611_Healy.all.mb58.gz 7.31MB Kongsberg multibeam vendor format
0456_20110901_000612_Healy.all.mb58.gz 7.42MB Kongsberg multibeam vendor format
0457_20110901_010611_Healy.all.mb58.gz 6.70MB Kongsberg multibeam vendor format
0458_20110901_020613_Healy.all.mb58.gz 7.60MB Kongsberg multibeam vendor format
0459_20110901_030616_Healy.all.mb58.gz 7.59MB Kongsberg multibeam vendor format
0460_20110901_040613_Healy.all.mb58.gz 7.20MB Kongsberg multibeam vendor format
0461_20110901_050610_Healy.all.mb58.gz 6.81MB Kongsberg multibeam vendor format
0462_20110901_060612_Healy.all.mb58.gz 7.61MB Kongsberg multibeam vendor format
0463_20110901_070614_Healy.all.mb58.gz 6.29MB Kongsberg multibeam vendor format
0464_20110901_080609_Healy.all.mb58.gz 6.27MB Kongsberg multibeam vendor format
0465_20110901_090608_Healy.all.mb58.gz 5.91MB Kongsberg multibeam vendor format
0466_20110901_100613_Healy.all.mb58.gz 4.76MB Kongsberg multibeam vendor format
0467_20110901_110609_Healy.all.mb58.gz 4.92MB Kongsberg multibeam vendor format
0468_20110901_120610_Healy.all.mb58.gz 5.99MB Kongsberg multibeam vendor format
0469_20110901_130610_Healy.all.mb58.gz 6.63MB Kongsberg multibeam vendor format
0470_20110901_140609_Healy.all.mb58.gz 6.67MB Kongsberg multibeam vendor format
0471_20110901_150608_Healy.all.mb58.gz 6.13MB Kongsberg multibeam vendor format
0472_20110901_160611_Healy.all.mb58.gz 4.93MB Kongsberg multibeam vendor format
0473_20110901_170610_Healy.all.mb58.gz 6.74MB Kongsberg multibeam vendor format
0474_20110901_180606_Healy.all.mb58.gz 9.27MB Kongsberg multibeam vendor format
0475_20110901_190611_Healy.all.mb58.gz 8.51MB Kongsberg multibeam vendor format
0476_20110901_200607_Healy.all.mb58.gz 1.36MB Kongsberg multibeam vendor format
0477_20110901_202536_Healy.all.mb58.gz 8.09MB Kongsberg multibeam vendor format
0478_20110901_212540_Healy.all.mb58.gz 21.61MB Kongsberg multibeam vendor format
0479_20110901_222538_Healy.all.mb58.gz 19.69MB Kongsberg multibeam vendor format
0480_20110901_232536_Healy.all.mb58.gz 14.15MB Kongsberg multibeam vendor format
0481_20110902_002536_Healy.all.mb58.gz 7.03MB Kongsberg multibeam vendor format
0482_20110902_012539_Healy.all.mb58.gz 7.10MB Kongsberg multibeam vendor format
0483_20110902_022543_Healy.all.mb58.gz 5.59MB Kongsberg multibeam vendor format
0484_20110902_032545_Healy.all.mb58.gz 8.96MB Kongsberg multibeam vendor format
0485_20110902_042537_Healy.all.mb58.gz 6.16MB Kongsberg multibeam vendor format
0486_20110902_052538_Healy.all.mb58.gz 6.06MB Kongsberg multibeam vendor format
0487_20110902_062539_Healy.all.mb58.gz 5.81MB Kongsberg multibeam vendor format
0488_20110902_072537_Healy.all.mb58.gz 6.17MB Kongsberg multibeam vendor format
0489_20110902_082543_Healy.all.mb58.gz 5.87MB Kongsberg multibeam vendor format
0490_20110902_092540_Healy.all.mb58.gz 6.05MB Kongsberg multibeam vendor format
0491_20110902_102544_Healy.all.mb58.gz 5.91MB Kongsberg multibeam vendor format
0492_20110902_112537_Healy.all.mb58.gz 6.04MB Kongsberg multibeam vendor format
0493_20110902_122536_Healy.all.mb58.gz 4.87MB Kongsberg multibeam vendor format
0494_20110902_132543_Healy.all.mb58.gz 6.33MB Kongsberg multibeam vendor format
0495_20110902_142544_Healy.all.mb58.gz 6.62MB Kongsberg multibeam vendor format
0496_20110902_152536_Healy.all.mb58.gz 4.55MB Kongsberg multibeam vendor format
0497_20110902_162536_Healy.all.mb58.gz 5.87MB Kongsberg multibeam vendor format
0498_20110902_172540_Healy.all.mb58.gz 7.16MB Kongsberg multibeam vendor format
0499_20110902_182543_Healy.all.mb58.gz 7.29MB Kongsberg multibeam vendor format
0500_20110902_192543_Healy.all.mb58.gz 17.70MB Kongsberg multibeam vendor format
0501_20110902_202544_Healy.all.mb58.gz 7.18MB Kongsberg multibeam vendor format
0502_20110902_212544_Healy.all.mb58.gz 7.07MB Kongsberg multibeam vendor format
0503_20110902_222538_Healy.all.mb58.gz 6.31MB Kongsberg multibeam vendor format
0504_20110902_232545_Healy.all.mb58.gz 5.56MB Kongsberg multibeam vendor format
0505_20110903_002540_Healy.all.mb58.gz 6.94MB Kongsberg multibeam vendor format
0506_20110903_012541_Healy.all.mb58.gz 5.57MB Kongsberg multibeam vendor format
0507_20110903_022537_Healy.all.mb58.gz 5.83MB Kongsberg multibeam vendor format
0508_20110903_032539_Healy.all.mb58.gz 5.40MB Kongsberg multibeam vendor format
0509_20110903_042541_Healy.all.mb58.gz 6.05MB Kongsberg multibeam vendor format
0510_20110903_052536_Healy.all.mb58.gz 6.83MB Kongsberg multibeam vendor format
0511_20110903_062543_Healy.all.mb58.gz 6.89MB Kongsberg multibeam vendor format
0512_20110903_072536_Healy.all.mb58.gz 6.77MB Kongsberg multibeam vendor format
0513_20110903_082535_Healy.all.mb58.gz 6.63MB Kongsberg multibeam vendor format
0514_20110903_092544_Healy.all.mb58.gz 6.86MB Kongsberg multibeam vendor format
0515_20110903_102538_Healy.all.mb58.gz 6.82MB Kongsberg multibeam vendor format
0516_20110903_112535_Healy.all.mb58.gz 6.18MB Kongsberg multibeam vendor format
0517_20110903_122543_Healy.all.mb58.gz 6.16MB Kongsberg multibeam vendor format
0518_20110903_132541_Healy.all.mb58.gz 6.08MB Kongsberg multibeam vendor format
0519_20110903_142536_Healy.all.mb58.gz 6.74MB Kongsberg multibeam vendor format
0520_20110903_152540_Healy.all.mb58.gz 7.07MB Kongsberg multibeam vendor format
0521_20110903_162537_Healy.all.mb58.gz 5.07MB Kongsberg multibeam vendor format
0522_20110903_172543_Healy.all.mb58.gz 4.28MB Kongsberg multibeam vendor format
0523_20110903_182543_Healy.all.mb58.gz 4.63MB Kongsberg multibeam vendor format
0524_20110903_192538_Healy.all.mb58.gz 6.09MB Kongsberg multibeam vendor format
0525_20110903_202534_Healy.all.mb58.gz 7.26MB Kongsberg multibeam vendor format
0526_20110903_212534_Healy.all.mb58.gz 7.72MB Kongsberg multibeam vendor format
0527_20110903_222534_Healy.all.mb58.gz 7.94MB Kongsberg multibeam vendor format
0528_20110903_232538_Healy.all.mb58.gz 8.26MB Kongsberg multibeam vendor format
0529_20110904_002540_Healy.all.mb58.gz 5.55MB Kongsberg multibeam vendor format
0530_20110904_012542_Healy.all.mb58.gz 4.36MB Kongsberg multibeam vendor format
0531_20110904_022534_Healy.all.mb58.gz 6.35MB Kongsberg multibeam vendor format
0532_20110904_032535_Healy.all.mb58.gz 4.45MB Kongsberg multibeam vendor format
0533_20110904_042537_Healy.all.mb58.gz 5.78MB Kongsberg multibeam vendor format
0534_20110904_052538_Healy.all.mb58.gz 6.47MB Kongsberg multibeam vendor format
0535_20110904_062540_Healy.all.mb58.gz 4.36MB Kongsberg multibeam vendor format
0536_20110904_072535_Healy.all.mb58.gz 4.56MB Kongsberg multibeam vendor format
0537_20110904_082536_Healy.all.mb58.gz 4.19MB Kongsberg multibeam vendor format
0538_20110904_092540_Healy.all.mb58.gz 3.33MB Kongsberg multibeam vendor format
0539_20110904_102539_Healy.all.mb58.gz 2.82MB Kongsberg multibeam vendor format
0540_20110904_112537_Healy.all.mb58.gz 2.93MB Kongsberg multibeam vendor format
0541_20110904_122535_Healy.all.mb58.gz 2.06MB Kongsberg multibeam vendor format
0542_20110904_132534_Healy.all.mb58.gz 3.23MB Kongsberg multibeam vendor format
0543_20110904_142536_Healy.all.mb58.gz 4.51MB Kongsberg multibeam vendor format
0544_20110904_152539_Healy.all.mb58.gz 4.53MB Kongsberg multibeam vendor format
0545_20110904_162542_Healy.all.mb58.gz 6.49MB Kongsberg multibeam vendor format
0546_20110904_172536_Healy.all.mb58.gz 4.40MB Kongsberg multibeam vendor format
0547_20110904_184439_Healy.all.mb58.gz 1.00MB Kongsberg multibeam vendor format
0548_20110904_185451_Healy.all.mb58.gz 256.7KB Kongsberg multibeam vendor format
0549_20110904_185712_Healy.all.mb58.gz 6.36MB Kongsberg multibeam vendor format
0550_20110904_195714_Healy.all.mb58.gz 1.32MB Kongsberg multibeam vendor format
0551_20110904_200915_Healy.all.mb58.gz 453.5KB Kongsberg multibeam vendor format
0552_20110904_201552_Healy.all.mb58.gz 5.15MB Kongsberg multibeam vendor format
0553_20110904_211554_Healy.all.mb58.gz 0.55MB Kongsberg multibeam vendor format
0554_20110904_212357_Healy.all.mb58.gz 0.98MB Kongsberg multibeam vendor format
0555_20110904_213812_Healy.all.mb58.gz 138.3KB Kongsberg multibeam vendor format
0556_20110904_214015_Healy.all.mb58.gz 3.49MB Kongsberg multibeam vendor format
0557_20110904_222757_Healy.all.mb58.gz 4.64MB Kongsberg multibeam vendor format
0558_20110904_232759_Healy.all.mb58.gz 4.43MB Kongsberg multibeam vendor format
0559_20110905_002750_Healy.all.mb58.gz 3.30MB Kongsberg multibeam vendor format
0560_20110905_012759_Healy.all.mb58.gz 3.67MB Kongsberg multibeam vendor format
0561_20110905_022441_Healy.all.mb58.gz 0.65MB Kongsberg multibeam vendor format
0562_20110905_023350_Healy.all.mb58.gz 2.50MB Kongsberg multibeam vendor format
0563_20110905_030727_Healy.all.mb58.gz 402.3KB Kongsberg multibeam vendor format
0564_20110905_031328_Healy.all.mb58.gz 99.5KB Kongsberg multibeam vendor format
0565_20110905_031424_Healy.all.mb58.gz 3.32MB Kongsberg multibeam vendor format
0566_20110905_035912_Healy.all.mb58.gz 376.1KB Kongsberg multibeam vendor format
0567_20110905_040548_Healy.all.mb58.gz 98.4KB Kongsberg multibeam vendor format
0568_20110905_040743_Healy.all.mb58.gz 56.0KB Kongsberg multibeam vendor format
0569_20110905_040814_Healy.all.mb58.gz 1.58MB Kongsberg multibeam vendor format
0570_20110905_042932_Healy.all.mb58.gz 106.3KB Kongsberg multibeam vendor format
0571_20110905_043038_Healy.all.mb58.gz 49.5KB Kongsberg multibeam vendor format
0572_20110905_043133_Healy.all.mb58.gz 84.7KB Kongsberg multibeam vendor format
0573_20110905_043238_Healy.all.mb58.gz 0.70MB Kongsberg multibeam vendor format
0574_20110905_044144_Healy.all.mb58.gz 104.0KB Kongsberg multibeam vendor format
0575_20110905_044320_Healy.all.mb58.gz 0.97MB Kongsberg multibeam vendor format
0576_20110905_045410_Healy.all.mb58.gz 381.3KB Kongsberg multibeam vendor format
0577_20110905_045853_Healy.all.mb58.gz 1.99MB Kongsberg multibeam vendor format
0578_20110905_052440_Healy.all.mb58.gz 1.24MB Kongsberg multibeam vendor format
0579_20110905_053709_Healy.all.mb58.gz 235.3KB Kongsberg multibeam vendor format
0580_20110905_054023_Healy.all.mb58.gz 1.16MB Kongsberg multibeam vendor format
0581_20110905_055555_Healy.all.mb58.gz 1.80MB Kongsberg multibeam vendor format
0582_20110905_061723_Healy.all.mb58.gz 143.3KB Kongsberg multibeam vendor format
0583_20110905_061942_Healy.all.mb58.gz 2.70MB Kongsberg multibeam vendor format
0584_20110905_065418_Healy.all.mb58.gz 324.5KB Kongsberg multibeam vendor format
0585_20110905_065745_Healy.all.mb58.gz 0.60MB Kongsberg multibeam vendor format
0586_20110905_070506_Healy.all.mb58.gz 4.51MB Kongsberg multibeam vendor format
0587_20110905_080509_Healy.all.mb58.gz 4.79MB Kongsberg multibeam vendor format
0588_20110905_090503_Healy.all.mb58.gz 4.22MB Kongsberg multibeam vendor format
0589_20110905_100242_Healy.all.mb58.gz 361.3KB Kongsberg multibeam vendor format
0590_20110905_100728_Healy.all.mb58.gz 1.03MB Kongsberg multibeam vendor format
0591_20110905_102534_Healy.all.mb58.gz 4.30MB Kongsberg multibeam vendor format
0592_20110905_112535_Healy.all.mb58.gz 4.23MB Kongsberg multibeam vendor format
0593_20110905_122541_Healy.all.mb58.gz 4.95MB Kongsberg multibeam vendor format
0594_20110905_132540_Healy.all.mb58.gz 191.0KB Kongsberg multibeam vendor format
0595_20110905_132757_Healy.all.mb58.gz 161.9KB Kongsberg multibeam vendor format
0596_20110905_133003_Healy.all.mb58.gz 372.4KB Kongsberg multibeam vendor format
0597_20110905_133537_Healy.all.mb58.gz 2.04MB Kongsberg multibeam vendor format
0598_20110905_135958_Healy.all.mb58.gz 175.3KB Kongsberg multibeam vendor format
0599_20110905_140326_Healy.all.mb58.gz 1.36MB Kongsberg multibeam vendor format
0600_20110905_142128_Healy.all.mb58.gz 328.0KB Kongsberg multibeam vendor format
0601_20110905_142450_Healy.all.mb58.gz 4.67MB Kongsberg multibeam vendor format
0602_20110905_151711_Healy.all.mb58.gz 1.46MB Kongsberg multibeam vendor format
0603_20110905_154417_Healy.all.mb58.gz 0.54MB Kongsberg multibeam vendor format
0604_20110905_155139_Healy.all.mb58.gz 4.95MB Kongsberg multibeam vendor format
0605_20110905_165137_Healy.all.mb58.gz 1.28MB Kongsberg multibeam vendor format
0606_20110905_171232_Healy.all.mb58.gz 3.50MB Kongsberg multibeam vendor format
0607_20110905_181234_Healy.all.mb58.gz 2.96MB Kongsberg multibeam vendor format
0608_20110905_185251_Healy.all.mb58.gz 115.7KB Kongsberg multibeam vendor format
0609_20110905_185354_Healy.all.mb58.gz 1.26MB Kongsberg multibeam vendor format
0610_20110905_191054_Healy.all.mb58.gz 7.04MB Kongsberg multibeam vendor format
0611_20110905_201051_Healy.all.mb58.gz 11.51MB Kongsberg multibeam vendor format
0612_20110905_211047_Healy.all.mb58.gz 13.39MB Kongsberg multibeam vendor format
0613_20110905_221046_Healy.all.mb58.gz 8.14MB Kongsberg multibeam vendor format
0614_20110905_231049_Healy.all.mb58.gz 0.70MB Kongsberg multibeam vendor format
0615_20110905_232019_Healy.all.mb58.gz 1.05MB Kongsberg multibeam vendor format
0616_20110905_233916_Healy.all.mb58.gz 1.80MB Kongsberg multibeam vendor format
0617_20110906_000640_Healy.all.mb58.gz 68.9KB Kongsberg multibeam vendor format
0618_20110906_000748_Healy.all.mb58.gz 1.04MB Kongsberg multibeam vendor format
0619_20110906_002037_Healy.all.mb58.gz 2.66MB Kongsberg multibeam vendor format
0620_20110906_005543_Healy.all.mb58.gz 0.87MB Kongsberg multibeam vendor format
0621_20110906_010705_Healy.all.mb58.gz 0.52MB Kongsberg multibeam vendor format
0622_20110906_011337_Healy.all.mb58.gz 349.4KB Kongsberg multibeam vendor format
0623_20110906_012013_Healy.all.mb58.gz 3.69MB Kongsberg multibeam vendor format
0624_20110906_022015_Healy.all.mb58.gz 1.15MB Kongsberg multibeam vendor format
0625_20110906_023902_Healy.all.mb58.gz 132.6KB Kongsberg multibeam vendor format
0626_20110906_024055_Healy.all.mb58.gz 165.9KB Kongsberg multibeam vendor format
0627_20110906_024407_Healy.all.mb58.gz 0.72MB Kongsberg multibeam vendor format
0628_20110906_025650_Healy.all.mb58.gz 391.6KB Kongsberg multibeam vendor format
0629_20110906_030044_Healy.all.mb58.gz 73.7KB Kongsberg multibeam vendor format
0630_20110906_030200_Healy.all.mb58.gz 3.92MB Kongsberg multibeam vendor format
0631_20110906_040158_Healy.all.mb58.gz 3.58MB Kongsberg multibeam vendor format
0632_20110906_044949_Healy.all.mb58.gz 443.1KB Kongsberg multibeam vendor format
0633_20110906_045618_Healy.all.mb58.gz 1.82MB Kongsberg multibeam vendor format
0634_20110906_051947_Healy.all.mb58.gz 1.94MB Kongsberg multibeam vendor format
0635_20110906_055016_Healy.all.mb58.gz 0.60MB Kongsberg multibeam vendor format
0636_20110906_060022_Healy.all.mb58.gz 1.27MB Kongsberg multibeam vendor format
0637_20110906_062044_Healy.all.mb58.gz 149.7KB Kongsberg multibeam vendor format
0638_20110906_062409_Healy.all.mb58.gz 489.8KB Kongsberg multibeam vendor format
0639_20110906_063227_Healy.all.mb58.gz 341.1KB Kongsberg multibeam vendor format
0640_20110906_063847_Healy.all.mb58.gz 118.5KB Kongsberg multibeam vendor format
0641_20110906_064102_Healy.all.mb58.gz 2.95MB Kongsberg multibeam vendor format
0642_20110906_074100_Healy.all.mb58.gz 3.68MB Kongsberg multibeam vendor format
0643_20110906_084109_Healy.all.mb58.gz 1.64MB Kongsberg multibeam vendor format
0644_20110906_090100_Healy.all.mb58.gz 5.45MB Kongsberg multibeam vendor format
0645_20110906_100105_Healy.all.mb58.gz 5.98MB Kongsberg multibeam vendor format
0646_20110906_110100_Healy.all.mb58.gz 2.97MB Kongsberg multibeam vendor format
0647_20110906_112839_Healy.all.mb58.gz 6.52MB Kongsberg multibeam vendor format
0648_20110906_122508_Healy.all.mb58.gz 51.9KB Kongsberg multibeam vendor format
0649_20110906_122532_Healy.all.mb58.gz 81.8KB Kongsberg multibeam vendor format
0650_20110906_122618_Healy.all.mb58.gz 4.86MB Kongsberg multibeam vendor format
0651_20110906_130718_Healy.all.mb58.gz 6.40MB Kongsberg multibeam vendor format
0653_20110906_140713_Healy.all.mb58.gz 6.05MB Kongsberg multibeam vendor format
0654_20110906_150717_Healy.all.mb58.gz 1.60MB Kongsberg multibeam vendor format
0655_20110906_152325_Healy.all.mb58.gz 7.68MB Kongsberg multibeam vendor format
0656_20110906_162326_Healy.all.mb58.gz 7.93MB Kongsberg multibeam vendor format
0657_20110906_172329_Healy.all.mb58.gz 8.25MB Kongsberg multibeam vendor format
0658_20110906_182326_Healy.all.mb58.gz 7.43MB Kongsberg multibeam vendor format
0659_20110906_192327_Healy.all.mb58.gz 7.76MB Kongsberg multibeam vendor format
0660_20110906_202326_Healy.all.mb58.gz 16.47MB Kongsberg multibeam vendor format
0661_20110906_212328_Healy.all.mb58.gz 16.50MB Kongsberg multibeam vendor format
0662_20110906_222325_Healy.all.mb58.gz 8.51MB Kongsberg multibeam vendor format
0663_20110906_232330_Healy.all.mb58.gz 2.41MB Kongsberg multibeam vendor format
0664_20110906_234023_Healy.all.mb58.gz 7.11MB Kongsberg multibeam vendor format
0665_20110907_004016_Healy.all.mb58.gz 4.67MB Kongsberg multibeam vendor format
0666_20110907_011702_Healy.all.mb58.gz 1.32MB Kongsberg multibeam vendor format
0667_20110907_012751_Healy.all.mb58.gz 4.59MB Kongsberg multibeam vendor format
0668_20110907_021101_Healy.all.mb58.gz 1.47MB Kongsberg multibeam vendor format
0669_20110907_022233_Healy.all.mb58.gz 3.00MB Kongsberg multibeam vendor format
0670_20110907_024407_Healy.all.mb58.gz 8.57MB Kongsberg multibeam vendor format
0671_20110907_034406_Healy.all.mb58.gz 0.66MB Kongsberg multibeam vendor format
0672_20110907_034853_Healy.all.mb58.gz 24.5KB Kongsberg multibeam vendor format
0673_20110907_034902_Healy.all.mb58.gz 46.8KB Kongsberg multibeam vendor format
0674_20110907_034921_Healy.all.mb58.gz 24.4KB Kongsberg multibeam vendor format
0675_20110907_034930_Healy.all.mb58.gz 24.7KB Kongsberg multibeam vendor format
0676_20110907_034939_Healy.all.mb58.gz 3.03MB Kongsberg multibeam vendor format
0677_20110907_041314_Healy.all.mb58.gz 1.10MB Kongsberg multibeam vendor format
0678_20110907_042143_Healy.all.mb58.gz 1.98MB Kongsberg multibeam vendor format
0679_20110907_043909_Healy.all.mb58.gz 265.8KB Kongsberg multibeam vendor format
0680_20110907_044135_Healy.all.mb58.gz 0.70MB Kongsberg multibeam vendor format
0681_20110907_044806_Healy.all.mb58.gz 510.9KB Kongsberg multibeam vendor format
0682_20110907_045233_Healy.all.mb58.gz 6.19MB Kongsberg multibeam vendor format
0683_20110907_055322_Healy.all.mb58.gz 328.5KB Kongsberg multibeam vendor format
0684_20110907_055558_Healy.all.mb58.gz 1.47MB Kongsberg multibeam vendor format
0685_20110907_060900_Healy.all.mb58.gz 4.38MB Kongsberg multibeam vendor format
0686_20110907_065404_Healy.all.mb58.gz 1.91MB Kongsberg multibeam vendor format
0687_20110907_071216_Healy.all.mb58.gz 5.75MB Kongsberg multibeam vendor format
0688_20110907_080459_Healy.all.mb58.gz 5.09MB Kongsberg multibeam vendor format
0689_20110907_090459_Healy.all.mb58.gz 4.54MB Kongsberg multibeam vendor format
0690_20110907_100457_Healy.all.mb58.gz 4.90MB Kongsberg multibeam vendor format
0691_20110907_110457_Healy.all.mb58.gz 4.14MB Kongsberg multibeam vendor format
0692_20110907_120456_Healy.all.mb58.gz 5.02MB Kongsberg multibeam vendor format
0693_20110907_130505_Healy.all.mb58.gz 5.15MB Kongsberg multibeam vendor format
0694_20110907_140504_Healy.all.mb58.gz 2.74MB Kongsberg multibeam vendor format
0695_20110907_143331_Healy.all.mb58.gz 4.52MB Kongsberg multibeam vendor format
0696_20110907_151915_Healy.all.mb58.gz 4.11MB Kongsberg multibeam vendor format
0697_20110907_155240_Healy.all.mb58.gz 2.01MB Kongsberg multibeam vendor format
0698_20110907_160848_Healy.all.mb58.gz 225.5KB Kongsberg multibeam vendor format
0699_20110907_161031_Healy.all.mb58.gz 3.19MB Kongsberg multibeam vendor format
0700_20110907_163522_Healy.all.mb58.gz 7.53MB Kongsberg multibeam vendor format
0701_20110907_173519_Healy.all.mb58.gz 7.07MB Kongsberg multibeam vendor format
0702_20110907_183528_Healy.all.mb58.gz 4.43MB Kongsberg multibeam vendor format
0703_20110907_191044_Healy.all.mb58.gz 1.71MB Kongsberg multibeam vendor format
0704_20110907_192354_Healy.all.mb58.gz 170.4KB Kongsberg multibeam vendor format
0705_20110907_192545_Healy.all.mb58.gz 2.13MB Kongsberg multibeam vendor format
0705_20110907_195005_Healy.all.mb58.gz 6.10MB Kongsberg multibeam vendor format
0706_20110907_204956_Healy.all.mb58.gz 6.20MB Kongsberg multibeam vendor format
0707_20110907_214956_Healy.all.mb58.gz 7.19MB Kongsberg multibeam vendor format
0708_20110907_225000_Healy.all.mb58.gz 5.99MB Kongsberg multibeam vendor format
0709_20110907_234955_Healy.all.mb58.gz 7.36MB Kongsberg multibeam vendor format
0710_20110908_005004_Healy.all.mb58.gz 7.60MB Kongsberg multibeam vendor format
0711_20110908_014957_Healy.all.mb58.gz 6.50MB Kongsberg multibeam vendor format
0712_20110908_025001_Healy.all.mb58.gz 1.20MB Kongsberg multibeam vendor format
0713_20110908_025917_Healy.all.mb58.gz 1.98MB Kongsberg multibeam vendor format
0714_20110908_031748_Healy.all.mb58.gz 5.47MB Kongsberg multibeam vendor format
0715_20110908_041748_Healy.all.mb58.gz 5.35MB Kongsberg multibeam vendor format
0716_20110908_051747_Healy.all.mb58.gz 6.08MB Kongsberg multibeam vendor format
0717_20110908_061751_Healy.all.mb58.gz 6.03MB Kongsberg multibeam vendor format
0718_20110908_071755_Healy.all.mb58.gz 6.91MB Kongsberg multibeam vendor format
0719_20110908_081749_Healy.all.mb58.gz 6.71MB Kongsberg multibeam vendor format
0720_20110908_091748_Healy.all.mb58.gz 7.04MB Kongsberg multibeam vendor format
0721_20110908_101749_Healy.all.mb58.gz 6.87MB Kongsberg multibeam vendor format
0722_20110908_111752_Healy.all.mb58.gz 5.82MB Kongsberg multibeam vendor format
0723_20110908_121755_Healy.all.mb58.gz 6.60MB Kongsberg multibeam vendor format
0724_20110908_131756_Healy.all.mb58.gz 5.92MB Kongsberg multibeam vendor format
0725_20110908_141750_Healy.all.mb58.gz 4.59MB Kongsberg multibeam vendor format
0726_20110908_151747_Healy.all.mb58.gz 5.09MB Kongsberg multibeam vendor format
0727_20110908_161750_Healy.all.mb58.gz 6.43MB Kongsberg multibeam vendor format
0728_20110908_171757_Healy.all.mb58.gz 5.41MB Kongsberg multibeam vendor format
0729_20110908_181752_Healy.all.mb58.gz 6.49MB Kongsberg multibeam vendor format
0730_20110908_191754_Healy.all.mb58.gz 6.39MB Kongsberg multibeam vendor format
0731_20110908_201747_Healy.all.mb58.gz 6.16MB Kongsberg multibeam vendor format
0732_20110908_211754_Healy.all.mb58.gz 6.62MB Kongsberg multibeam vendor format
0733_20110908_221753_Healy.all.mb58.gz 6.00MB Kongsberg multibeam vendor format
0734_20110908_231748_Healy.all.mb58.gz 6.10MB Kongsberg multibeam vendor format
0735_20110909_001747_Healy.all.mb58.gz 5.57MB Kongsberg multibeam vendor format
0736_20110909_011746_Healy.all.mb58.gz 6.85MB Kongsberg multibeam vendor format
0737_20110909_021750_Healy.all.mb58.gz 6.79MB Kongsberg multibeam vendor format
0738_20110909_031753_Healy.all.mb58.gz 6.81MB Kongsberg multibeam vendor format
0739_20110909_041745_Healy.all.mb58.gz 7.10MB Kongsberg multibeam vendor format
0740_20110909_051752_Healy.all.mb58.gz 7.09MB Kongsberg multibeam vendor format
0741_20110909_061750_Healy.all.mb58.gz 7.73MB Kongsberg multibeam vendor format
0742_20110909_071752_Healy.all.mb58.gz 8.34MB Kongsberg multibeam vendor format
0743_20110909_081751_Healy.all.mb58.gz 7.47MB Kongsberg multibeam vendor format
0744_20110909_091752_Healy.all.mb58.gz 6.72MB Kongsberg multibeam vendor format
0745_20110909_101749_Healy.all.mb58.gz 8.98MB Kongsberg multibeam vendor format
0746_20110909_111746_Healy.all.mb58.gz 6.84MB Kongsberg multibeam vendor format
0747_20110909_121747_Healy.all.mb58.gz 7.77MB Kongsberg multibeam vendor format
0748_20110909_131752_Healy.all.mb58.gz 7.53MB Kongsberg multibeam vendor format
0749_20110909_141744_Healy.all.mb58.gz 9.01MB Kongsberg multibeam vendor format
0750_20110909_151747_Healy.all.mb58.gz 8.42MB Kongsberg multibeam vendor format
0751_20110909_161752_Healy.all.mb58.gz 7.13MB Kongsberg multibeam vendor format
0752_20110909_171749_Healy.all.mb58.gz 7.81MB Kongsberg multibeam vendor format
0753_20110909_181744_Healy.all.mb58.gz 6.32MB Kongsberg multibeam vendor format
0754_20110909_191751_Healy.all.mb58.gz 7.74MB Kongsberg multibeam vendor format
0755_20110909_201750_Healy.all.mb58.gz 16.75MB Kongsberg multibeam vendor format
0756_20110909_211750_Healy.all.mb58.gz 6.86MB Kongsberg multibeam vendor format
0757_20110909_221745_Healy.all.mb58.gz 7.59MB Kongsberg multibeam vendor format
0758_20110909_231749_Healy.all.mb58.gz 7.71MB Kongsberg multibeam vendor format
0759_20110910_001744_Healy.all.mb58.gz 7.92MB Kongsberg multibeam vendor format
0760_20110910_011749_Healy.all.mb58.gz 8.59MB Kongsberg multibeam vendor format
0761_20110910_021747_Healy.all.mb58.gz 5.65MB Kongsberg multibeam vendor format
0762_20110910_031750_Healy.all.mb58.gz 7.63MB Kongsberg multibeam vendor format
0763_20110910_041748_Healy.all.mb58.gz 6.62MB Kongsberg multibeam vendor format
0764_20110910_051746_Healy.all.mb58.gz 7.04MB Kongsberg multibeam vendor format
0765_20110910_061748_Healy.all.mb58.gz 6.96MB Kongsberg multibeam vendor format
0766_20110910_071748_Healy.all.mb58.gz 6.60MB Kongsberg multibeam vendor format
0767_20110910_081745_Healy.all.mb58.gz 7.92MB Kongsberg multibeam vendor format
0768_20110910_091746_Healy.all.mb58.gz 7.45MB Kongsberg multibeam vendor format
0769_20110910_101748_Healy.all.mb58.gz 8.51MB Kongsberg multibeam vendor format
0770_20110910_111751_Healy.all.mb58.gz 7.84MB Kongsberg multibeam vendor format
0771_20110910_121748_Healy.all.mb58.gz 7.28MB Kongsberg multibeam vendor format
0772_20110910_131744_Healy.all.mb58.gz 6.18MB Kongsberg multibeam vendor format
0773_20110910_141744_Healy.all.mb58.gz 8.56MB Kongsberg multibeam vendor format
0774_20110910_151749_Healy.all.mb58.gz 7.41MB Kongsberg multibeam vendor format
0775_20110910_161743_Healy.all.mb58.gz 5.27MB Kongsberg multibeam vendor format
0776_20110910_171746_Healy.all.mb58.gz 5.61MB Kongsberg multibeam vendor format
0777_20110910_181744_Healy.all.mb58.gz 5.00MB Kongsberg multibeam vendor format
0778_20110910_191746_Healy.all.mb58.gz 5.84MB Kongsberg multibeam vendor format
0779_20110910_201750_Healy.all.mb58.gz 6.93MB Kongsberg multibeam vendor format
0780_20110910_211751_Healy.all.mb58.gz 3.38MB Kongsberg multibeam vendor format
0781_20110910_221749_Healy.all.mb58.gz 4.81MB Kongsberg multibeam vendor format
0782_20110910_231746_Healy.all.mb58.gz 5.77MB Kongsberg multibeam vendor format
0783_20110911_001746_Healy.all.mb58.gz 7.61MB Kongsberg multibeam vendor format
0784_20110911_011746_Healy.all.mb58.gz 7.67MB Kongsberg multibeam vendor format
0785_20110911_021745_Healy.all.mb58.gz 7.10MB Kongsberg multibeam vendor format
0786_20110911_031744_Healy.all.mb58.gz 4.23MB Kongsberg multibeam vendor format
0787_20110911_041744_Healy.all.mb58.gz 5.59MB Kongsberg multibeam vendor format
0788_20110911_051749_Healy.all.mb58.gz 5.79MB Kongsberg multibeam vendor format
0789_20110911_061743_Healy.all.mb58.gz 4.85MB Kongsberg multibeam vendor format
0790_20110911_071753_Healy.all.mb58.gz 3.44MB Kongsberg multibeam vendor format
0791_20110911_081752_Healy.all.mb58.gz 2.56MB Kongsberg multibeam vendor format
0792_20110911_091746_Healy.all.mb58.gz 3.44MB Kongsberg multibeam vendor format
0793_20110911_101750_Healy.all.mb58.gz 6.51MB Kongsberg multibeam vendor format
0794_20110911_111751_Healy.all.mb58.gz 6.37MB Kongsberg multibeam vendor format
0795_20110911_121744_Healy.all.mb58.gz 13.53MB Kongsberg multibeam vendor format
0795_20110911_121744_Healy_2.all.mb58.gz 5.55MB Kongsberg multibeam vendor format
0796_20110911_131745_Healy.all.mb58.gz 7.95MB Kongsberg multibeam vendor format
0797_20110911_141750_Healy.all.mb58.gz 6.31MB Kongsberg multibeam vendor format
0798_20110911_151748_Healy.all.mb58.gz 4.59MB Kongsberg multibeam vendor format
0799_20110911_161744_Healy.all.mb58.gz 5.49MB Kongsberg multibeam vendor format
0800_20110911_171746_Healy.all.mb58.gz 5.77MB Kongsberg multibeam vendor format
0801_20110911_181744_Healy.all.mb58.gz 5.67MB Kongsberg multibeam vendor format
0802_20110911_191750_Healy.all.mb58.gz 4.41MB Kongsberg multibeam vendor format
0803_20110911_201743_Healy.all.mb58.gz 3.86MB Kongsberg multibeam vendor format
0804_20110911_211749_Healy.all.mb58.gz 4.45MB Kongsberg multibeam vendor format
0805_20110911_221747_Healy.all.mb58.gz 4.04MB Kongsberg multibeam vendor format
0806_20110911_231751_Healy.all.mb58.gz 4.56MB Kongsberg multibeam vendor format
0807_20110912_001745_Healy.all.mb58.gz 4.26MB Kongsberg multibeam vendor format
0808_20110912_011745_Healy.all.mb58.gz 3.58MB Kongsberg multibeam vendor format
0809_20110912_021744_Healy.all.mb58.gz 5.45MB Kongsberg multibeam vendor format
0810_20110912_031749_Healy.all.mb58.gz 3.41MB Kongsberg multibeam vendor format
0811_20110912_041745_Healy.all.mb58.gz 4.16MB Kongsberg multibeam vendor format
0812_20110912_051758_Healy.all.mb58.gz 4.09MB Kongsberg multibeam vendor format
0813_20110912_061748_Healy.all.mb58.gz 4.86MB Kongsberg multibeam vendor format
0814_20110912_071753_Healy.all.mb58.gz 5.20MB Kongsberg multibeam vendor format
0815_20110912_081744_Healy.all.mb58.gz 5.04MB Kongsberg multibeam vendor format
0816_20110912_091743_Healy.all.mb58.gz 6.39MB Kongsberg multibeam vendor format
0817_20110912_101748_Healy.all.mb58.gz 5.77MB Kongsberg multibeam vendor format
0818_20110912_111751_Healy.all.mb58.gz 5.59MB Kongsberg multibeam vendor format
0819_20110912_121749_Healy.all.mb58.gz 5.84MB Kongsberg multibeam vendor format
0820_20110912_131748_Healy.all.mb58.gz 5.86MB Kongsberg multibeam vendor format
0821_20110912_141747_Healy.all.mb58.gz 5.92MB Kongsberg multibeam vendor format
0822_20110912_151748_Healy.all.mb58.gz 6.22MB Kongsberg multibeam vendor format
0823_20110912_161746_Healy.all.mb58.gz 4.39MB Kongsberg multibeam vendor format
0824_20110912_171745_Healy.all.mb58.gz 4.83MB Kongsberg multibeam vendor format
0825_20110912_181745_Healy.all.mb58.gz 4.65MB Kongsberg multibeam vendor format
0826_20110912_191746_Healy.all.mb58.gz 5.21MB Kongsberg multibeam vendor format
0827_20110912_201742_Healy.all.mb58.gz 4.98MB Kongsberg multibeam vendor format
0828_20110912_211749_Healy.all.mb58.gz 4.95MB Kongsberg multibeam vendor format
0829_20110912_221750_Healy.all.mb58.gz 3.23MB Kongsberg multibeam vendor format
0830_20110912_231749_Healy.all.mb58.gz 2.88MB Kongsberg multibeam vendor format
0901_20110915_211244_Healy.all.mb58.gz 4.45MB Kongsberg multibeam vendor format
0902_20110915_220454_Healy.all.mb58.gz 4.84MB Kongsberg multibeam vendor format
0903_20110915_230457_Healy.all.mb58.gz 4.26MB Kongsberg multibeam vendor format
0904_20110916_000502_Healy.all.mb58.gz 4.82MB Kongsberg multibeam vendor format
0905_20110916_010455_Healy.all.mb58.gz 5.22MB Kongsberg multibeam vendor format
0906_20110916_020456_Healy.all.mb58.gz 5.01MB Kongsberg multibeam vendor format
0907_20110916_030457_Healy.all.mb58.gz 5.74MB Kongsberg multibeam vendor format
0908_20110916_040457_Healy.all.mb58.gz 4.33MB Kongsberg multibeam vendor format
0909_20110916_050455_Healy.all.mb58.gz 8.06MB Kongsberg multibeam vendor format
0910_20110916_060455_Healy.all.mb58.gz 7.43MB Kongsberg multibeam vendor format
0911_20110916_070456_Healy.all.mb58.gz 6.62MB Kongsberg multibeam vendor format
0912_20110916_080504_Healy.all.mb58.gz 6.11MB Kongsberg multibeam vendor format
0913_20110916_090333_Healy.all.mb58.gz 7.31MB Kongsberg multibeam vendor format
0914_20110916_100337_Healy.all.mb58.gz 8.19MB Kongsberg multibeam vendor format
0915_20110916_110336_Healy.all.mb58.gz 2.59MB Kongsberg multibeam vendor format
0916_20110916_112240_Healy.all.mb58.gz 1.40MB Kongsberg multibeam vendor format
0917_20110916_113348_Healy.all.mb58.gz 5.85MB Kongsberg multibeam vendor format
0918_20110916_123347_Healy.all.mb58.gz 7.69MB Kongsberg multibeam vendor format
0919_20110916_133353_Healy.all.mb58.gz 7.68MB Kongsberg multibeam vendor format
0920_20110916_143351_Healy.all.mb58.gz 7.25MB Kongsberg multibeam vendor format
0921_20110916_153348_Healy.all.mb58.gz 7.57MB Kongsberg multibeam vendor format
0922_20110916_163352_Healy.all.mb58.gz 8.33MB Kongsberg multibeam vendor format
0923_20110916_173347_Healy.all.mb58.gz 6.51MB Kongsberg multibeam vendor format
0924_20110916_183352_Healy.all.mb58.gz 5.71MB Kongsberg multibeam vendor format
0925_20110916_193351_Healy.all.mb58.gz 6.10MB Kongsberg multibeam vendor format
0926_20110916_203348_Healy.all.mb58.gz 5.68MB Kongsberg multibeam vendor format
0927_20110916_213347_Healy.all.mb58.gz 5.84MB Kongsberg multibeam vendor format
0928_20110916_223350_Healy.all.mb58.gz 5.58MB Kongsberg multibeam vendor format
0929_20110916_233345_Healy.all.mb58.gz 7.43MB Kongsberg multibeam vendor format
0930_20110917_003346_Healy.all.mb58.gz 6.05MB Kongsberg multibeam vendor format
0931_20110917_013351_Healy.all.mb58.gz 6.33MB Kongsberg multibeam vendor format
0932_20110917_023352_Healy.all.mb58.gz 10.73MB Kongsberg multibeam vendor format
0933_20110917_033351_Healy.all.mb58.gz 5.83MB Kongsberg multibeam vendor format
0934_20110917_043344_Healy.all.mb58.gz 5.30MB Kongsberg multibeam vendor format
0935_20110917_053344_Healy.all.mb58.gz 5.12MB Kongsberg multibeam vendor format
0936_20110917_063346_Healy.all.mb58.gz 4.83MB Kongsberg multibeam vendor format
0937_20110917_073351_Healy.all.mb58.gz 3.85MB Kongsberg multibeam vendor format
0938_20110917_083348_Healy.all.mb58.gz 4.78MB Kongsberg multibeam vendor format
0939_20110917_093351_Healy.all.mb58.gz 5.59MB Kongsberg multibeam vendor format
0940_20110917_103344_Healy.all.mb58.gz 4.96MB Kongsberg multibeam vendor format
0941_20110917_113351_Healy.all.mb58.gz 5.51MB Kongsberg multibeam vendor format
0942_20110917_123344_Healy.all.mb58.gz 5.01MB Kongsberg multibeam vendor format
0943_20110917_133345_Healy.all.mb58.gz 5.51MB Kongsberg multibeam vendor format
0944_20110917_143351_Healy.all.mb58.gz 4.87MB Kongsberg multibeam vendor format
0970_20110918_152816_Healy.all.mb58.gz 4.41MB Kongsberg multibeam vendor format
0971_20110918_162818_Healy.all.mb58.gz 5.59MB Kongsberg multibeam vendor format
0972_20110918_172823_Healy.all.mb58.gz 5.68MB Kongsberg multibeam vendor format
0973_20110918_182822_Healy.all.mb58.gz 5.37MB Kongsberg multibeam vendor format
0974_20110918_192817_Healy.all.mb58.gz 5.67MB Kongsberg multibeam vendor format
0975_20110918_202822_Healy.all.mb58.gz 4.82MB Kongsberg multibeam vendor format
0976_20110918_212821_Healy.all.mb58.gz 4.59MB Kongsberg multibeam vendor format
0977_20110918_222822_Healy.all.mb58.gz 3.71MB Kongsberg multibeam vendor format
0978_20110918_232823_Healy.all.mb58.gz 5.22MB Kongsberg multibeam vendor format
0979_20110919_002822_Healy.all.mb58.gz 4.40MB Kongsberg multibeam vendor format
0980_20110919_012815_Healy.all.mb58.gz 5.38MB Kongsberg multibeam vendor format
0981_20110919_022824_Healy.all.mb58.gz 5.69MB Kongsberg multibeam vendor format
0982_20110919_032822_Healy.all.mb58.gz 6.87MB Kongsberg multibeam vendor format
0983_20110919_042820_Healy.all.mb58.gz 4.79MB Kongsberg multibeam vendor format
0984_20110919_052817_Healy.all.mb58.gz 4.65MB Kongsberg multibeam vendor format
0985_20110919_062818_Healy.all.mb58.gz 6.38MB Kongsberg multibeam vendor format
0986_20110919_072823_Healy.all.mb58.gz 4.65MB Kongsberg multibeam vendor format
0987_20110919_082819_Healy.all.mb58.gz 5.70MB Kongsberg multibeam vendor format
0988_20110919_092823_Healy.all.mb58.gz 5.78MB Kongsberg multibeam vendor format
0989_20110919_102823_Healy.all.mb58.gz 4.60MB Kongsberg multibeam vendor format
0990_20110919_112823_Healy.all.mb58.gz 6.40MB Kongsberg multibeam vendor format
0991_20110919_122823_Healy.all.mb58.gz 4.65MB Kongsberg multibeam vendor format
1039_20110921_120724_Healy.all.mb58.gz 5.55MB Kongsberg multibeam vendor format
1040_20110921_130730_Healy.all.mb58.gz 6.43MB Kongsberg multibeam vendor format
1041_20110921_140726_Healy.all.mb58.gz 6.69MB Kongsberg multibeam vendor format
1042_20110921_150722_Healy.all.mb58.gz 6.81MB Kongsberg multibeam vendor format
1043_20110921_160725_Healy.all.mb58.gz 6.78MB Kongsberg multibeam vendor format
1044_20110921_170725_Healy.all.mb58.gz 7.12MB Kongsberg multibeam vendor format
1045_20110921_180726_Healy.all.mb58.gz 7.21MB Kongsberg multibeam vendor format
1046_20110921_190728_Healy.all.mb58.gz 7.16MB Kongsberg multibeam vendor format
1047_20110921_200726_Healy.all.mb58.gz 7.63MB Kongsberg multibeam vendor format
1048_20110921_210722_Healy.all.mb58.gz 7.56MB Kongsberg multibeam vendor format
1049_20110921_220724_Healy.all.mb58.gz 7.06MB Kongsberg multibeam vendor format
1050_20110921_230723_Healy.all.mb58.gz 7.03MB Kongsberg multibeam vendor format
1051_20110922_000728_Healy.all.mb58.gz 7.38MB Kongsberg multibeam vendor format
1052_20110922_010722_Healy.all.mb58.gz 7.73MB Kongsberg multibeam vendor format
1053_20110922_020721_Healy.all.mb58.gz 8.12MB Kongsberg multibeam vendor format
1054_20110922_030731_Healy.all.mb58.gz 8.05MB Kongsberg multibeam vendor format
1055_20110922_040732_Healy.all.mb58.gz 7.96MB Kongsberg multibeam vendor format
1056_20110922_050726_Healy.all.mb58.gz 7.81MB Kongsberg multibeam vendor format
1057_20110922_060722_Healy.all.mb58.gz 8.11MB Kongsberg multibeam vendor format
1058_20110922_070729_Healy.all.mb58.gz 7.77MB Kongsberg multibeam vendor format
1059_20110922_080727_Healy.all.mb58.gz 8.15MB Kongsberg multibeam vendor format
1060_20110922_090723_Healy.all.mb58.gz 8.33MB Kongsberg multibeam vendor format
1061_20110922_100729_Healy.all.mb58.gz 8.25MB Kongsberg multibeam vendor format
1062_20110922_110724_Healy.all.mb58.gz 8.12MB Kongsberg multibeam vendor format
1063_20110922_120724_Healy.all.mb58.gz 8.16MB Kongsberg multibeam vendor format
1064_20110922_130720_Healy.all.mb58.gz 8.04MB Kongsberg multibeam vendor format
1065_20110922_140730_Healy.all.mb58.gz 7.99MB Kongsberg multibeam vendor format
1066_20110922_150728_Healy.all.mb58.gz 7.90MB Kongsberg multibeam vendor format
1067_20110922_160722_Healy.all.mb58.gz 8.29MB Kongsberg multibeam vendor format
1068_20110922_170730_Healy.all.mb58.gz 8.40MB Kongsberg multibeam vendor format
1069_20110922_180730_Healy.all.mb58.gz 8.24MB Kongsberg multibeam vendor format
1070_20110922_190727_Healy.all.mb58.gz 8.20MB Kongsberg multibeam vendor format
1071_20110922_200723_Healy.all.mb58.gz 8.22MB Kongsberg multibeam vendor format
1072_20110922_210731_Healy.all.mb58.gz 7.09MB Kongsberg multibeam vendor format
1073_20110922_220726_Healy.all.mb58.gz 7.98MB Kongsberg multibeam vendor format
1074_20110922_230725_Healy.all.mb58.gz 8.06MB Kongsberg multibeam vendor format
1075_20110923_000725_Healy.all.mb58.gz 8.66MB Kongsberg multibeam vendor format
1076_20110923_010723_Healy.all.mb58.gz 9.51MB Kongsberg multibeam vendor format
1077_20110923_020731_Healy.all.mb58.gz 9.52MB Kongsberg multibeam vendor format
1078_20110923_030728_Healy.all.mb58.gz 9.92MB Kongsberg multibeam vendor format
1079_20110923_040728_Healy.all.mb58.gz 9.57MB Kongsberg multibeam vendor format
1080_20110923_050730_Healy.all.mb58.gz 9.39MB Kongsberg multibeam vendor format
1081_20110923_060726_Healy.all.mb58.gz 9.35MB Kongsberg multibeam vendor format
1082_20110923_070727_Healy.all.mb58.gz 9.02MB Kongsberg multibeam vendor format
1083_20110923_080727_Healy.all.mb58.gz 9.28MB Kongsberg multibeam vendor format
1084_20110923_090722_Healy.all.mb58.gz 9.57MB Kongsberg multibeam vendor format
1085_20110923_100730_Healy.all.mb58.gz 9.41MB Kongsberg multibeam vendor format
1086_20110923_110721_Healy.all.mb58.gz 8.82MB Kongsberg multibeam vendor format
1087_20110923_120720_Healy.all.mb58.gz 9.43MB Kongsberg multibeam vendor format
1088_20110923_130729_Healy.all.mb58.gz 9.37MB Kongsberg multibeam vendor format
1089_20110923_140729_Healy.all.mb58.gz 9.32MB Kongsberg multibeam vendor format
1090_20110923_150730_Healy.all.mb58.gz 9.22MB Kongsberg multibeam vendor format
1091_20110923_160723_Healy.all.mb58.gz 9.26MB Kongsberg multibeam vendor format
1092_20110923_170723_Healy.all.mb58.gz 9.37MB Kongsberg multibeam vendor format
1093_20110923_180726_Healy.all.mb58.gz 9.43MB Kongsberg multibeam vendor format
1094_20110923_190729_Healy.all.mb58.gz 9.49MB Kongsberg multibeam vendor format
1095_20110923_200727_Healy.all.mb58.gz 9.74MB Kongsberg multibeam vendor format
1096_20110923_210728_Healy.all.mb58.gz 9.59MB Kongsberg multibeam vendor format
1097_20110923_220724_Healy.all.mb58.gz 9.66MB Kongsberg multibeam vendor format
1098_20110923_230721_Healy.all.mb58.gz 2.91MB Kongsberg multibeam vendor format
1099_20110923_232521_Healy.all.mb58.gz 3.49MB Kongsberg multibeam vendor format
1100_20110923_234629_Healy.all.mb58.gz 9.60MB Kongsberg multibeam vendor format
1101_20110924_004630_Healy.all.mb58.gz 9.55MB Kongsberg multibeam vendor format
1102_20110924_014627_Healy.all.mb58.gz 9.55MB Kongsberg multibeam vendor format
1103_20110924_024626_Healy.all.mb58.gz 9.49MB Kongsberg multibeam vendor format
1104_20110924_034624_Healy.all.mb58.gz 0.95MB Kongsberg multibeam vendor format
1105_20110924_035218_Healy.all.mb58.gz 2.47MB Kongsberg multibeam vendor format
1106_20110924_040726_Healy.all.mb58.gz 9.61MB Kongsberg multibeam vendor format
1107_20110924_050727_Healy.all.mb58.gz 9.69MB Kongsberg multibeam vendor format
1108_20110924_060727_Healy.all.mb58.gz 9.89MB Kongsberg multibeam vendor format
1109_20110924_070734_Healy.all.mb58.gz 10.12MB Kongsberg multibeam vendor format
1110_20110924_080727_Healy.all.mb58.gz 15.30MB Kongsberg multibeam vendor format
1111_20110924_090734_Healy.all.mb58.gz 20.20MB Kongsberg multibeam vendor format
1112_20110924_100728_Healy.all.mb58.gz 26.08MB Kongsberg multibeam vendor format
1113_20110924_110725_Healy.all.mb58.gz 31.36MB Kongsberg multibeam vendor format
1114_20110924_120727_Healy.all.mb58.gz 40.81MB Kongsberg multibeam vendor format
1115_20110924_130727_Healy.all.mb58.gz 109.99MB Kongsberg multibeam vendor format
1116_20110924_140725_Healy.all.mb58.gz 126.05MB Kongsberg multibeam vendor format
1117_20110924_150725_Healy.all.mb58.gz 99.59MB Kongsberg multibeam vendor format
1118_20110924_160725_Healy.all.mb58.gz 118.52MB Kongsberg multibeam vendor format
1119_20110924_170725_Healy.all.mb58.gz 68.03MB Kongsberg multibeam vendor format
1120_20110924_173636_Healy.all.mb58.gz 230.65MB Kongsberg multibeam vendor format
1121_20110924_183636_Healy.all.mb58.gz 270.77MB Kongsberg multibeam vendor format
1122_20110924_193636_Healy.all.mb58.gz 296.20MB Kongsberg multibeam vendor format
1123_20110924_203635_Healy.all.mb58.gz 218.83MB Kongsberg multibeam vendor format
1124_20110924_213635_Healy.all.mb58.gz 209.56MB Kongsberg multibeam vendor format
1125_20110924_223635_Healy.all.mb58.gz 211.23MB Kongsberg multibeam vendor format
1126_20110924_233636_Healy.all.mb58.gz 220.27MB Kongsberg multibeam vendor format
1127_20110925_003635_Healy.all.mb58.gz 213.39MB Kongsberg multibeam vendor format
1128_20110925_013636_Healy.all.mb58.gz 79.47MB Kongsberg multibeam vendor format
1129_20110925_020048_Healy.all.mb58.gz 218.47MB Kongsberg multibeam vendor format
1130_20110925_030048_Healy.all.mb58.gz 224.60MB Kongsberg multibeam vendor format
1131_20110925_040048_Healy.all.mb58.gz 228.88MB Kongsberg multibeam vendor format
1132_20110925_050048_Healy.all.mb58.gz 232.44MB Kongsberg multibeam vendor format
1133_20110925_060048_Healy.all.mb58.gz 236.01MB Kongsberg multibeam vendor format
1134_20110925_070048_Healy.all.mb58.gz 228.57MB Kongsberg multibeam vendor format
1135_20110925_080047_Healy.all.mb58.gz 223.20MB Kongsberg multibeam vendor format
1136_20110925_090048_Healy.all.mb58.gz 209.37MB Kongsberg multibeam vendor format
1137_20110925_100047_Healy.all.mb58.gz 210.52MB Kongsberg multibeam vendor format
1138_20110925_110048_Healy.all.mb58.gz 210.33MB Kongsberg multibeam vendor format
1139_20110925_120048_Healy.all.mb58.gz 190.67MB Kongsberg multibeam vendor format
1140_20110925_130048_Healy.all.mb58.gz 192.75MB Kongsberg multibeam vendor format
1141_20110925_140048_Healy.all.mb58.gz 198.88MB Kongsberg multibeam vendor format
1142_20110925_150048_Healy.all.mb58.gz 310.96MB Kongsberg multibeam vendor format
1143_20110925_160048_Healy.all.mb58.gz 319.96MB Kongsberg multibeam vendor format
1144_20110925_170047_Healy.all.mb58.gz 279.58MB Kongsberg multibeam vendor format
1145_20110925_180047_Healy.all.mb58.gz 264.64MB Kongsberg multibeam vendor format
1146_20110925_190047_Healy.all.mb58.gz 282.89MB Kongsberg multibeam vendor format
1147_20110925_200047_Healy.all.mb58.gz 267.02MB Kongsberg multibeam vendor format
1148_20110925_210047_Healy.all.mb58.gz 201.43MB Kongsberg multibeam vendor format
1149_20110925_220047_Healy.all.mb58.gz 211.41MB Kongsberg multibeam vendor format
1150_20110925_230047_Healy.all.mb58.gz 207.88MB Kongsberg multibeam vendor format
1151_20110926_000047_Healy.all.mb58.gz 211.77MB Kongsberg multibeam vendor format
1152_20110926_010047_Healy.all.mb58.gz 230.16MB Kongsberg multibeam vendor format
1153_20110926_020047_Healy.all.mb58.gz 321.97MB Kongsberg multibeam vendor format
1154_20110926_030047_Healy.all.mb58.gz 319.80MB Kongsberg multibeam vendor format
1155_20110926_040047_Healy.all.mb58.gz 317.29MB Kongsberg multibeam vendor format
1156_20110926_050047_Healy.all.mb58.gz 244.76MB Kongsberg multibeam vendor format
1157_20110926_060047_Healy.all.mb58.gz 224.79MB Kongsberg multibeam vendor format
1158_20110926_070047_Healy.all.mb58.gz 223.05MB Kongsberg multibeam vendor format
1159_20110926_080047_Healy.all.mb58.gz 221.62MB Kongsberg multibeam vendor format
1160_20110926_090047_Healy.all.mb58.gz 222.17MB Kongsberg multibeam vendor format
1161_20110926_100047_Healy.all.mb58.gz 230.60MB Kongsberg multibeam vendor format
1162_20110926_110047_Healy.all.mb58.gz 237.00MB Kongsberg multibeam vendor format
1163_20110926_120047_Healy.all.mb58.gz 249.41MB Kongsberg multibeam vendor format
1164_20110926_130047_Healy.all.mb58.gz 267.58MB Kongsberg multibeam vendor format
1165_20110926_140047_Healy.all.mb58.gz 281.88MB Kongsberg multibeam vendor format
1166_20110926_150047_Healy.all.mb58.gz 281.81MB Kongsberg multibeam vendor format
1167_20110926_160047_Healy.all.mb58.gz 256.50MB Kongsberg multibeam vendor format
1168_20110926_170047_Healy.all.mb58.gz 238.36MB Kongsberg multibeam vendor format
1169_20110926_180047_Healy.all.mb58.gz 269.37MB Kongsberg multibeam vendor format
1170_20110926_190047_Healy.all.mb58.gz 281.42MB Kongsberg multibeam vendor format
1171_20110926_200047_Healy.all.mb58.gz 282.29MB Kongsberg multibeam vendor format
1172_20110926_210047_Healy.all.mb58.gz 281.99MB Kongsberg multibeam vendor format
1173_20110926_220047_Healy.all.mb58.gz 282.20MB Kongsberg multibeam vendor format
1174_20110926_230047_Healy.all.mb58.gz 282.07MB Kongsberg multibeam vendor format
1175_20110927_000047_Healy.all.mb58.gz 282.14MB Kongsberg multibeam vendor format
1176_20110927_010047_Healy.all.mb58.gz 281.42MB Kongsberg multibeam vendor format
1177_20110927_020047_Healy.all.mb58.gz 281.84MB Kongsberg multibeam vendor format
1178_20110927_030047_Healy.all.mb58.gz 276.70MB Kongsberg multibeam vendor format
1179_20110927_040047_Healy.all.mb58.gz 262.36MB Kongsberg multibeam vendor format
1180_20110927_050047_Healy.all.mb58.gz 250.66MB Kongsberg multibeam vendor format
1181_20110927_060047_Healy.all.mb58.gz 246.68MB Kongsberg multibeam vendor format
1182_20110927_070047_Healy.all.mb58.gz 247.98MB Kongsberg multibeam vendor format
1183_20110927_080046_Healy.all.mb58.gz 241.52MB Kongsberg multibeam vendor format
1184_20110927_090047_Healy.all.mb58.gz 241.23MB Kongsberg multibeam vendor format
1185_20110927_100046_Healy.all.mb58.gz 247.21MB Kongsberg multibeam vendor format
1186_20110927_110047_Healy.all.mb58.gz 225.17MB Kongsberg multibeam vendor format
1187_20110927_120046_Healy.all.mb58.gz 214.54MB Kongsberg multibeam vendor format
1188_20110927_130047_Healy.all.mb58.gz 194.53MB Kongsberg multibeam vendor format
1189_20110927_140046_Healy.all.mb58.gz 140.78MB Kongsberg multibeam vendor format
1190_20110927_150047_Healy.all.mb58.gz 261.01MB Kongsberg multibeam vendor format
1191_20110927_160047_Healy.all.mb58.gz 259.58MB Kongsberg multibeam vendor format
1192_20110927_170046_Healy.all.mb58.gz 256.27MB Kongsberg multibeam vendor format
1193_20110927_180047_Healy.all.mb58.gz 250.18MB Kongsberg multibeam vendor format
1194_20110927_190047_Healy.all.mb58.gz 264.37MB Kongsberg multibeam vendor format
1195_20110927_200046_Healy.all.mb58.gz 252.02MB Kongsberg multibeam vendor format
1196_20110927_210046_Healy.all.mb58.gz 260.44MB Kongsberg multibeam vendor format
1197_20110927_220046_Healy.all.mb58.gz 258.91MB Kongsberg multibeam vendor format
1198_20110927_230046_Healy.all.mb58.gz 230.39MB Kongsberg multibeam vendor format
1199_20110928_000046_Healy.all.mb58.gz 213.86MB Kongsberg multibeam vendor format
1200_20110928_010047_Healy.all.mb58.gz 206.01MB Kongsberg multibeam vendor format
1201_20110928_020046_Healy.all.mb58.gz 188.70MB Kongsberg multibeam vendor format
1202_20110928_030047_Healy.all.mb58.gz 186.27MB Kongsberg multibeam vendor format
1203_20110928_040046_Healy.all.mb58.gz 189.81MB Kongsberg multibeam vendor format
1204_20110928_050046_Healy.all.mb58.gz 191.98MB Kongsberg multibeam vendor format
1205_20110928_060046_Healy.all.mb58.gz 188.15MB Kongsberg multibeam vendor format
1206_20110928_070046_Healy.all.mb58.gz 183.81MB Kongsberg multibeam vendor format
1207_20110928_080046_Healy.all.mb58.gz 83.42MB Kongsberg multibeam vendor format
1208_20110928_090046_Healy.all.mb58.gz 9.86MB Kongsberg multibeam vendor format
1209_20110928_100046_Healy.all.mb58.gz 48.06MB Kongsberg multibeam vendor format
1210_20110928_110048_Healy.all.mb58.gz 38.21MB Kongsberg multibeam vendor format
1211_20110928_124334_Healy.all.mb58.gz 39.07MB Kongsberg multibeam vendor format
1212_20110928_132348_Healy.all.mb58.gz 105.25MB Kongsberg multibeam vendor format
1213_20110928_141546_Healy.all.mb58.gz 96.81MB Kongsberg multibeam vendor format
1214_20110928_144950_Healy.all.mb58.gz 197.94MB Kongsberg multibeam vendor format
1215_20110928_154951_Healy.all.mb58.gz 1.08MB Kongsberg multibeam vendor format
9999.all.mb58.gz 115.8KB Kongsberg multibeam vendor format
9999_110815213615_tmp.all.mb58.gz 511.2KB Kongsberg multibeam vendor format
9999_110815214739_tmp.all.mb58.gz 1.01MB Kongsberg multibeam vendor format
9999_110817024645_tmp.all.mb58.gz 10.85MB Kongsberg multibeam vendor format
9999_110817025856_tmp.all.mb58.gz 69.2KB Kongsberg multibeam vendor format
9999_110901201907_tmp.all.mb58.gz 31.3KB Kongsberg multibeam vendor format
9999_110901201932_tmp.all.mb58.gz 5.0KB Kongsberg multibeam vendor format
9999_110901202527_tmp.all.mb58.gz 4.9KB Kongsberg multibeam vendor format
0831_20110913_001748_Healy.all.mb58.gz 6.21MB Kongsberg multibeam vendor format
0832_20110913_010611_Healy.all.mb58.gz 10.85MB Kongsberg multibeam vendor format
0833_20110913_020612_Healy.all.mb58.gz 10.73MB Kongsberg multibeam vendor format
0834_20110913_030614_Healy.all.mb58.gz 10.22MB Kongsberg multibeam vendor format
0835_20110913_040613_Healy.all.mb58.gz 10.85MB Kongsberg multibeam vendor format
0836_20110913_050610_Healy.all.mb58.gz 10.95MB Kongsberg multibeam vendor format
0837_20110913_060622_Healy.all.mb58.gz 10.24MB Kongsberg multibeam vendor format
0838_20110913_070615_Healy.all.mb58.gz 8.20MB Kongsberg multibeam vendor format
0839_20110913_080609_Healy.all.mb58.gz 8.76MB Kongsberg multibeam vendor format
0840_20110913_090608_Healy.all.mb58.gz 8.43MB Kongsberg multibeam vendor format
0841_20110913_100608_Healy.all.mb58.gz 7.76MB Kongsberg multibeam vendor format
0842_20110913_110613_Healy.all.mb58.gz 9.54MB Kongsberg multibeam vendor format
0843_20110913_120612_Healy.all.mb58.gz 8.26MB Kongsberg multibeam vendor format
0844_20110913_134012_Healy.all.mb58.gz 12.84MB Kongsberg multibeam vendor format
0845_20110913_144015_Healy.all.mb58.gz 12.27MB Kongsberg multibeam vendor format
0846_20110913_154017_Healy.all.mb58.gz 18.05MB Kongsberg multibeam vendor format
0847_20110913_164016_Healy.all.mb58.gz 17.89MB Kongsberg multibeam vendor format
0848_20110913_174014_Healy.all.mb58.gz 17.59MB Kongsberg multibeam vendor format
0849_20110913_184012_Healy.all.mb58.gz 17.91MB Kongsberg multibeam vendor format
0850_20110913_194018_Healy.all.mb58.gz 17.33MB Kongsberg multibeam vendor format
0851_20110913_204016_Healy.all.mb58.gz 17.83MB Kongsberg multibeam vendor format
0852_20110913_214016_Healy.all.mb58.gz 17.85MB Kongsberg multibeam vendor format
0853_20110913_224013_Healy.all.mb58.gz 23.75MB Kongsberg multibeam vendor format
0854_20110913_234018_Healy.all.mb58.gz 65.5KB Kongsberg multibeam vendor format
0855_20110913_234033_Healy.all.mb58.gz 39.71MB Kongsberg multibeam vendor format
0856_20110914_004032_Healy.all.mb58.gz 40.05MB Kongsberg multibeam vendor format
0857_20110914_014033_Healy.all.mb58.gz 40.13MB Kongsberg multibeam vendor format
0858_20110914_024032_Healy.all.mb58.gz 41.47MB Kongsberg multibeam vendor format
0859_20110914_034039_Healy.all.mb58.gz 38.26MB Kongsberg multibeam vendor format
0860_20110914_044033_Healy.all.mb58.gz 38.72MB Kongsberg multibeam vendor format
0861_20110914_054040_Healy.all.mb58.gz 39.24MB Kongsberg multibeam vendor format
0862_20110914_064037_Healy.all.mb58.gz 40.13MB Kongsberg multibeam vendor format
0863_20110914_074033_Healy.all.mb58.gz 39.83MB Kongsberg multibeam vendor format
0864_20110914_084037_Healy.all.mb58.gz 39.52MB Kongsberg multibeam vendor format
0865_20110914_094036_Healy.all.mb58.gz 40.78MB Kongsberg multibeam vendor format
0866_20110914_104036_Healy.all.mb58.gz 37.58MB Kongsberg multibeam vendor format
0867_20110914_114036_Healy.all.mb58.gz 40.94MB Kongsberg multibeam vendor format
0868_20110914_124033_Healy.all.mb58.gz 34.90MB Kongsberg multibeam vendor format
0869_20110914_134035_Healy.all.mb58.gz 28.94MB Kongsberg multibeam vendor format
0870_20110914_144035_Healy.all.mb58.gz 26.74MB Kongsberg multibeam vendor format
0871_20110914_154038_Healy.all.mb58.gz 42.01MB Kongsberg multibeam vendor format
0872_20110914_164032_Healy.all.mb58.gz 36.11MB Kongsberg multibeam vendor format
0873_20110914_174032_Healy.all.mb58.gz 41.12MB Kongsberg multibeam vendor format
0874_20110914_184039_Healy.all.mb58.gz 39.88MB Kongsberg multibeam vendor format
0875_20110914_194031_Healy.all.mb58.gz 30.14MB Kongsberg multibeam vendor format
0876_20110914_204032_Healy.all.mb58.gz 37.16MB Kongsberg multibeam vendor format
0877_20110914_214033_Healy.all.mb58.gz 38.46MB Kongsberg multibeam vendor format
0878_20110914_224034_Healy.all.mb58.gz 33.39MB Kongsberg multibeam vendor format
0879_20110914_234036_Healy.all.mb58.gz 23.62MB Kongsberg multibeam vendor format
0880_20110915_004033_Healy.all.mb58.gz 24.74MB Kongsberg multibeam vendor format
0881_20110915_014040_Healy.all.mb58.gz 17.60MB Kongsberg multibeam vendor format
0882_20110915_024034_Healy.all.mb58.gz 17.93MB Kongsberg multibeam vendor format
0883_20110915_034038_Healy.all.mb58.gz 19.78MB Kongsberg multibeam vendor format
0884_20110915_044040_Healy.all.mb58.gz 17.89MB Kongsberg multibeam vendor format
0885_20110915_054040_Healy.all.mb58.gz 17.59MB Kongsberg multibeam vendor format
0886_20110915_064033_Healy.all.mb58.gz 17.42MB Kongsberg multibeam vendor format
0887_20110915_074031_Healy.all.mb58.gz 17.44MB Kongsberg multibeam vendor format
0888_20110915_084039_Healy.all.mb58.gz 17.18MB Kongsberg multibeam vendor format
0889_20110915_094036_Healy.all.mb58.gz 17.20MB Kongsberg multibeam vendor format
0890_20110915_104032_Healy.all.mb58.gz 16.92MB Kongsberg multibeam vendor format
0891_20110915_114033_Healy.all.mb58.gz 9.33MB Kongsberg multibeam vendor format
0892_20110915_121246_Healy.all.mb58.gz 17.12MB Kongsberg multibeam vendor format
0893_20110915_131252_Healy.all.mb58.gz 16.48MB Kongsberg multibeam vendor format
0894_20110915_141243_Healy.all.mb58.gz 13.35MB Kongsberg multibeam vendor format
0895_20110915_151244_Healy.all.mb58.gz 17.62MB Kongsberg multibeam vendor format
0896_20110915_161244_Healy.all.mb58.gz 14.47MB Kongsberg multibeam vendor format
0897_20110915_171249_Healy.all.mb58.gz 14.21MB Kongsberg multibeam vendor format
0898_20110915_181249_Healy.all.mb58.gz 15.22MB Kongsberg multibeam vendor format
0899_20110915_191246_Healy.all.mb58.gz 14.00MB Kongsberg multibeam vendor format
0900_20110915_201248_Healy.all.mb58.gz 13.51MB Kongsberg multibeam vendor format
0945_20110917_153346_Healy.all.mb58.gz 13.63MB Kongsberg multibeam vendor format
0946_20110917_163344_Healy.all.mb58.gz 2.20MB Kongsberg multibeam vendor format
0947_20110917_164141_Healy.all.mb58.gz 15.35MB Kongsberg multibeam vendor format
0948_20110917_174145_Healy.all.mb58.gz 17.40MB Kongsberg multibeam vendor format
0949_20110917_184141_Healy.all.mb58.gz 17.46MB Kongsberg multibeam vendor format
0950_20110917_194148_Healy.all.mb58.gz 17.51MB Kongsberg multibeam vendor format
0951_20110917_204144_Healy.all.mb58.gz 24.60MB Kongsberg multibeam vendor format
0952_20110917_214148_Healy.all.mb58.gz 26.74MB Kongsberg multibeam vendor format
0953_20110917_224143_Healy.all.mb58.gz 27.01MB Kongsberg multibeam vendor format
0954_20110917_234146_Healy.all.mb58.gz 27.10MB Kongsberg multibeam vendor format
0955_20110918_004147_Healy.all.mb58.gz 27.61MB Kongsberg multibeam vendor format
0956_20110918_014146_Healy.all.mb58.gz 32.95MB Kongsberg multibeam vendor format
0957_20110918_024143_Healy.all.mb58.gz 16.51MB Kongsberg multibeam vendor format
0958_20110918_034144_Healy.all.mb58.gz 15.26MB Kongsberg multibeam vendor format
0959_20110918_044143_Healy.all.mb58.gz 15.15MB Kongsberg multibeam vendor format
0960_20110918_054145_Healy.all.mb58.gz 14.18MB Kongsberg multibeam vendor format
0961_20110918_064147_Healy.all.mb58.gz 14.69MB Kongsberg multibeam vendor format
0962_20110918_074147_Healy.all.mb58.gz 12.35MB Kongsberg multibeam vendor format
0963_20110918_084144_Healy.all.mb58.gz 11.06MB Kongsberg multibeam vendor format
0964_20110918_094145_Healy.all.mb58.gz 13.02MB Kongsberg multibeam vendor format
0965_20110918_104146_Healy.all.mb58.gz 11.21MB Kongsberg multibeam vendor format
0966_20110918_114146_Healy.all.mb58.gz 10.84MB Kongsberg multibeam vendor format
0967_20110918_124144_Healy.all.mb58.gz 10.84MB Kongsberg multibeam vendor format
0968_20110918_134140_Healy.all.mb58.gz 10.96MB Kongsberg multibeam vendor format
0969_20110918_144146_Healy.all.mb58.gz 10.03MB Kongsberg multibeam vendor format
0992_20110919_132816_Healy.all.mb58.gz 13.99MB Kongsberg multibeam vendor format
0993_20110919_142819_Healy.all.mb58.gz 11.24MB Kongsberg multibeam vendor format
0994_20110919_151305_Healy.all.mb58.gz 17.06MB Kongsberg multibeam vendor format
0995_20110919_161306_Healy.all.mb58.gz 17.80MB Kongsberg multibeam vendor format
0996_20110919_171307_Healy.all.mb58.gz 17.78MB Kongsberg multibeam vendor format
0997_20110919_181311_Healy.all.mb58.gz 17.95MB Kongsberg multibeam vendor format
0998_20110919_191307_Healy.all.mb58.gz 17.53MB Kongsberg multibeam vendor format
0999_20110919_201309_Healy.all.mb58.gz 18.17MB Kongsberg multibeam vendor format
1000_20110919_211310_Healy.all.mb58.gz 4.39MB Kongsberg multibeam vendor format
1001_20110919_220726_Healy.all.mb58.gz 18.11MB Kongsberg multibeam vendor format
1002_20110919_230726_Healy.all.mb58.gz 16.35MB Kongsberg multibeam vendor format
1003_20110920_000727_Healy.all.mb58.gz 19.76MB Kongsberg multibeam vendor format
1004_20110920_010728_Healy.all.mb58.gz 19.81MB Kongsberg multibeam vendor format
1005_20110920_020729_Healy.all.mb58.gz 19.80MB Kongsberg multibeam vendor format
1006_20110920_030730_Healy.all.mb58.gz 19.80MB Kongsberg multibeam vendor format
1007_20110920_040732_Healy.all.mb58.gz 19.80MB Kongsberg multibeam vendor format
1008_20110920_050733_Healy.all.mb58.gz 19.75MB Kongsberg multibeam vendor format
1009_20110920_060723_Healy.all.mb58.gz 19.79MB Kongsberg multibeam vendor format
1010_20110920_070724_Healy.all.mb58.gz 19.81MB Kongsberg multibeam vendor format
1011_20110920_080725_Healy.all.mb58.gz 19.79MB Kongsberg multibeam vendor format
1012_20110920_090726_Healy.all.mb58.gz 19.77MB Kongsberg multibeam vendor format
1013_20110920_100727_Healy.all.mb58.gz 19.80MB Kongsberg multibeam vendor format
1014_20110920_110728_Healy.all.mb58.gz 19.78MB Kongsberg multibeam vendor format
1015_20110920_120730_Healy.all.mb58.gz 19.79MB Kongsberg multibeam vendor format
1016_20110920_130731_Healy.all.mb58.gz 19.79MB Kongsberg multibeam vendor format
1017_20110920_140732_Healy.all.mb58.gz 19.76MB Kongsberg multibeam vendor format
1018_20110920_150722_Healy.all.mb58.gz 19.81MB Kongsberg multibeam vendor format
1019_20110920_160723_Healy.all.mb58.gz 12.91MB Kongsberg multibeam vendor format
1020_20110920_170723_Healy.all.mb58.gz 12.38MB Kongsberg multibeam vendor format
1021_20110920_180730_Healy.all.mb58.gz 19.66MB Kongsberg multibeam vendor format
1022_20110920_190727_Healy.all.mb58.gz 19.76MB Kongsberg multibeam vendor format
1023_20110920_200722_Healy.all.mb58.gz 19.78MB Kongsberg multibeam vendor format
1024_20110920_210723_Healy.all.mb58.gz 19.78MB Kongsberg multibeam vendor format
1025_20110920_220724_Healy.all.mb58.gz 19.80MB Kongsberg multibeam vendor format
1026_20110920_230725_Healy.all.mb58.gz 19.80MB Kongsberg multibeam vendor format
1027_20110921_000726_Healy.all.mb58.gz 19.82MB Kongsberg multibeam vendor format
1028_20110921_010728_Healy.all.mb58.gz 19.80MB Kongsberg multibeam vendor format
1028_20110921_010728_Healy_2.all.mb58.gz 10.87MB Kongsberg multibeam vendor format
1029_20110921_020729_Healy.all.mb58.gz 19.82MB Kongsberg multibeam vendor format
1030_20110921_030730_Healy.all.mb58.gz 19.75MB Kongsberg multibeam vendor format
1031_20110921_040731_Healy.all.mb58.gz 18.41MB Kongsberg multibeam vendor format
1032_20110921_050726_Healy.all.mb58.gz 11.53MB Kongsberg multibeam vendor format
1033_20110921_060729_Healy.all.mb58.gz 14.35MB Kongsberg multibeam vendor format
1034_20110921_070723_Healy.all.mb58.gz 13.24MB Kongsberg multibeam vendor format
1035_20110921_080727_Healy.all.mb58.gz 12.42MB Kongsberg multibeam vendor format
1036_20110921_090725_Healy.all.mb58.gz 14.75MB Kongsberg multibeam vendor format
1037_20110921_100728_Healy.all.mb58.gz 14.18MB Kongsberg multibeam vendor format
1038_20110921_110728_Healy.all.mb58.gz 14.48MB Kongsberg multibeam vendor format

Full Resolution Bathymetry (processed): 1

Files File Size Description
HE1102_full.b93.mb164.gz 71.09MB NGDC binary hydrographic sounding format

Products: 6

Files File Size Description
Arctic_HE1102_Central_ASCII_bathy.xyz.gz 4.02MB xyz grid file provided by the originator
Arctic_HE1102_Central_IVS3D_bathy.sd.gz 3.44MB Fledermaus surface
Arctic_HE1102_North_ASCII_bathy.xyz.gz 11.38MB xyz grid file provided by the originator
Arctic_HE1102_North_IVS3D_bathy.sd.gz 10.60MB Fledermaus surface
Arctic_HE1102_South_ASCII_bathy.xyz.gz 16.22MB xyz grid file provided by the originator
Arctic_HE1102_South_IVS3D_bathy.sd.gz 9.45MB Fledermaus surface

Metadata Files: 8

Files File Size Description
HLY1102_Multibeam.xml NCEI created ISO metadata
Arctic_HE1102_Central_ASCII_bathy_metadata.xml 19.6KB XML metadata file
Arctic_HE1102_Central_IVS3D_bathy_metadata.xml 19.5KB XML metadata file
Arctic_HE1102_North_ASCII_bathy_metadata.xml 19.6KB XML metadata file
Arctic_HE1102_North_IVS3D_bathy_metadata.xml 19.5KB XML metadata file
Arctic_HE1102_South_ASCII_bathy_metadata.xml 19.6KB XML metadata file
Arctic_HE1102_South_IVS3D_bathy_metadata.xml 19.5KB XML metadata file
v1_file_metadata.tar.gz 350.9KB File level metadata

Water Column Sonar Data

Water Column Sonar Data Available: WCSD Map Viewer